Time,TemperatureF,DewpointF,PressureIn,WindDirection,WindDirectionDegrees,WindSpeedMPH,WindSpeedGustMPH,Humidity,HourlyPrecipIn,Conditions,Clouds,dailyrainin,SoftwareType,DateUTC
2013-05-24 00:00:00,54.6,49.2,30.15,NW,321,2.0,3.0,82,0.00,,,0.00,Wunderground v.1.15,2013-05-24 04:00:00,
2013-05-24 01:23:00,53.5,48.5,30.18,NW,323,1.0,4.0,83,0.00,,,0.00,Wunderground v.1.15,2013-05-24 05:23:00,
2013-05-24 01:29:00,53.4,48.4,30.18,NNW,348,2.0,4.0,83,0.00,,,0.00,Wunderground v.1.15,2013-05-24 05:29:00,
2013-05-24 01:38:00,53.4,48.4,30.18,East,87,1.0,3.0,83,0.00,,,0.00,Wunderground v.1.15,2013-05-24 05:38:00,
2013-05-24 01:43:00,53.5,48.8,30.18,ENE,61,1.0,1.0,84,0.00,,,0.00,Wunderground v.1.15,2013-05-24 05:43:00,
2013-05-24 01:44:00,53.5,48.8,30.18,ESE,106,1.0,1.0,84,0.00,,,0.00,Wunderground v.1.15,2013-05-24 05:44:00,
2013-05-24 01:49:00,53.4,48.4,30.18,ENE,71,1.0,1.0,83,0.00,,,0.00,Wunderground v.1.15,2013-05-24 05:49:00,
2013-05-24 01:52:00,53.4,48.0,30.18,North,355,1.0,3.0,82,0.00,,,0.00,Wunderground v.1.15,2013-05-24 05:52:00,
2013-05-24 01:54:00,53.4,48.0,30.18,NE,38,1.0,3.0,82,0.00,,,0.00,Wunderground v.1.15,2013-05-24 05:54:00,
2013-05-24 01:56:00,53.4,48.4,30.19,West,279,1.0,3.0,83,0.00,,,0.00,Wunderground v.1.15,2013-05-24 05:56:00,
2013-05-24 01:59:00,53.3,48.3,30.18,NNE,17,1.0,3.0,83,0.00,,,0.00,Wunderground v.1.15,2013-05-24 05:59:00,
2013-05-24 02:00:00,53.3,48.3,30.19,NNE,17,1.0,3.0,83,0.00,,,0.00,Wunderground v.1.15,2013-05-24 06:00:00,
2013-05-24 02:01:00,53.3,48.3,30.19,NNW,337,1.0,3.0,83,0.00,,,0.00,Wunderground v.1.15,2013-05-24 06:01:00,
2013-05-24 02:03:00,53.3,48.3,30.19,North,355,1.0,2.0,83,0.00,,,0.00,Wunderground v.1.15,2013-05-24 06:03:00,
2013-05-24 02:07:00,53.3,48.3,30.19,North,5,1.0,3.0,83,0.00,,,0.00,Wunderground v.1.15,2013-05-24 06:07:00,
2013-05-24 02:10:00,53.2,48.2,30.19,WNW,296,1.0,3.0,83,0.00,,,0.00,Wunderground v.1.15,2013-05-24 06:10:00,
2013-05-24 02:11:00,53.2,48.2,30.19,East,101,1.0,3.0,83,0.00,,,0.00,Wunderground v.1.15,2013-05-24 06:11:00,
2013-05-24 02:15:00,53.2,48.2,30.19,NE,35,0.0,2.0,83,0.00,,,0.00,Wunderground v.1.15,2013-05-24 06:15:00,
2013-05-24 02:17:00,53.2,48.2,30.19,North,355,1.0,2.0,83,0.00,,,0.00,Wunderground v.1.15,2013-05-24 06:17:00,
2013-05-24 02:22:00,53.1,48.1,30.19,SE,126,0.0,0.0,83,0.00,,,0.00,Wunderground v.1.15,2013-05-24 06:22:00,
2013-05-24 02:23:00,53.1,48.1,30.19,East,84,0.0,1.0,83,0.00,,,0.00,Wunderground v.1.15,2013-05-24 06:23:00,
2013-05-24 02:24:00,53.1,48.4,30.19,NW,306,0.0,1.0,84,0.00,,,0.00,Wunderground v.1.15,2013-05-24 06:24:00,
2013-05-24 02:27:00,53.1,48.1,30.19,NNE,19,1.0,2.0,83,0.00,,,0.00,Wunderground v.1.15,2013-05-24 06:27:00,
2013-05-24 02:29:00,53.0,48.0,30.19,NNW,332,1.0,2.0,83,0.00,,,0.00,Wunderground v.1.15,2013-05-24 06:29:00,
2013-05-24 02:30:00,53.0,48.0,30.19,NNW,332,1.0,2.0,83,0.00,,,0.00,Wunderground v.1.15,2013-05-24 06:30:00,
2013-05-24 02:31:00,53.0,48.0,30.19,NNW,329,1.0,2.0,83,0.00,,,0.00,Wunderground v.1.15,2013-05-24 06:31:00,
2013-05-24 02:33:00,53.0,48.0,30.19,NE,45,1.0,1.0,83,0.00,,,0.00,Wunderground v.1.15,2013-05-24 06:33:00,
2013-05-24 02:35:00,53.0,48.0,30.19,NE,45,1.0,1.0,83,0.00,,,0.00,Wunderground v.1.15,2013-05-24 06:35:00,
2013-05-24 02:37:00,53.0,48.3,30.19,East,97,0.0,2.0,84,0.00,,,0.00,Wunderground v.1.15,2013-05-24 06:37:00,
2013-05-24 02:40:00,53.0,48.3,30.19,NE,37,0.0,2.0,84,0.00,,,0.00,Wunderground v.1.15,2013-05-24 06:40:00,
2013-05-24 02:41:00,53.0,48.3,30.19,NE,37,0.0,2.0,84,0.00,,,0.00,Wunderground v.1.15,2013-05-24 06:41:00,
2013-05-24 02:43:00,53.0,48.0,30.19,NNE,17,0.0,1.0,83,0.00,,,0.00,Wunderground v.1.15,2013-05-24 06:43:00,
2013-05-24 02:44:00,53.0,48.0,30.19,NE,55,0.0,1.0,83,0.00,,,0.00,Wunderground v.1.15,2013-05-24 06:44:00,
2013-05-24 02:46:00,53.0,48.3,30.19,NE,47,0.0,1.0,84,0.00,,,0.00,Wunderground v.1.15,2013-05-24 06:46:00,
2013-05-24 02:48:00,53.0,48.3,30.19,WSW,242,0.0,1.0,84,0.00,,,0.00,Wunderground v.1.15,2013-05-24 06:48:00,
2013-05-24 02:49:00,53.0,48.0,30.20,NNE,21,0.0,1.0,83,0.00,,,0.00,Wunderground v.1.15,2013-05-24 06:49:00,
2013-05-24 02:50:00,53.0,48.3,30.20,WNW,294,0.0,1.0,84,0.00,,,0.00,Wunderground v.1.15,2013-05-24 06:50:00,
2013-05-24 02:52:00,52.9,47.9,30.20,NNE,30,0.0,0.0,83,0.00,,,0.00,Wunderground v.1.15,2013-05-24 06:52:00,
2013-05-24 02:54:00,52.9,47.9,30.20,North,5,0.0,0.0,83,0.00,,,0.00,Wunderground v.1.15,2013-05-24 06:54:00,
2013-05-24 02:55:00,52.9,47.9,30.20,North,5,0.0,0.0,83,0.00,,,0.00,Wunderground v.1.15,2013-05-24 06:55:00,
2013-05-24 02:56:00,52.9,47.9,30.20,North,5,0.0,0.0,83,0.00,,,0.00,Wunderground v.1.15,2013-05-24 06:56:00,
2013-05-24 02:58:00,52.9,47.9,30.20,NNE,12,0.0,3.0,83,0.00,,,0.00,Wunderground v.1.15,2013-05-24 06:58:00,
2013-05-24 03:00:00,52.8,48.1,30.20,NNE,27,0.0,3.0,84,0.00,,,0.00,Wunderground v.1.15,2013-05-24 07:00:00,
2013-05-24 03:01:00,52.8,48.1,30.20,NW,317,0.0,3.0,84,0.00,,,0.00,Wunderground v.1.15,2013-05-24 07:01:00,
2013-05-24 03:03:00,52.8,47.8,30.20,North,5,1.0,4.0,83,0.00,,,0.00,Wunderground v.1.15,2013-05-24 07:03:00,
2013-05-24 03:05:00,52.8,47.8,30.20,NNE,17,1.0,4.0,83,0.00,,,0.00,Wunderground v.1.15,2013-05-24 07:05:00,
2013-05-24 03:07:00,52.7,47.7,30.20,North,5,1.0,4.0,83,0.00,,,0.00,Wunderground v.1.15,2013-05-24 07:07:00,
2013-05-24 03:11:00,52.7,47.7,30.21,NNW,344,1.0,4.0,83,0.00,,,0.00,Wunderground v.1.15,2013-05-24 07:11:00,
2013-05-24 03:13:00,52.6,47.6,30.21,North,5,1.0,1.0,83,0.00,,,0.00,Wunderground v.1.15,2013-05-24 07:13:00,
2013-05-24 03:14:00,52.6,47.9,30.21,North,5,1.0,1.0,84,0.00,,,0.00,Wunderground v.1.15,2013-05-24 07:14:00,
2013-05-24 03:17:00,52.6,47.6,30.21,NNE,17,1.0,2.0,83,0.00,,,0.00,Wunderground v.1.15,2013-05-24 07:17:00,
2013-05-24 03:19:00,52.5,47.8,30.20,NNE,15,0.0,2.0,84,0.00,,,0.00,Wunderground v.1.15,2013-05-24 07:19:00,
2013-05-24 03:21:00,52.5,47.8,30.20,North,360,1.0,2.0,84,0.00,,,0.00,Wunderground v.1.15,2013-05-24 07:21:00,
2013-05-24 03:24:00,52.5,47.8,30.20,North,5,0.0,0.0,84,0.00,,,0.00,Wunderground v.1.15,2013-05-24 07:24:00,
2013-05-24 03:25:00,52.4,47.7,30.20,North,10,0.0,0.0,84,0.00,,,0.00,Wunderground v.1.15,2013-05-24 07:25:00,
2013-05-24 03:26:00,52.5,47.8,30.20,NNE,27,0.0,0.0,84,0.00,,,0.00,Wunderground v.1.15,2013-05-24 07:26:00,
2013-05-24 03:28:00,52.5,47.8,30.20,WNW,294,0.0,2.0,84,0.00,,,0.00,Wunderground v.1.15,2013-05-24 07:28:00,
2013-05-24 03:29:00,52.4,47.7,30.21,WNW,294,0.0,2.0,84,0.00,,,0.00,Wunderground v.1.15,2013-05-24 07:29:00,
2013-05-24 03:30:00,52.4,47.7,30.21,NNW,348,0.0,2.0,84,0.00,,,0.00,Wunderground v.1.15,2013-05-24 07:30:00,
2013-05-24 03:31:00,52.4,47.7,30.21,North,350,0.0,4.0,84,0.00,,,0.00,Wunderground v.1.15,2013-05-24 07:31:00,
2013-05-24 03:35:00,52.3,47.6,30.21,SSW,196,1.0,2.0,84,0.00,,,0.00,Wunderground v.1.15,2013-05-24 07:35:00,
2013-05-24 03:37:00,52.3,47.6,30.21,NE,34,1.0,2.0,84,0.00,,,0.00,Wunderground v.1.15,2013-05-24 07:37:00,
2013-05-24 03:41:00,52.3,47.6,30.21,NE,56,1.0,2.0,84,0.00,,,0.00,Wunderground v.1.15,2013-05-24 07:41:00,
2013-05-24 03:43:00,52.3,47.6,30.21,North,355,1.0,1.0,84,0.00,,,0.00,Wunderground v.1.15,2013-05-24 07:43:00,
2013-05-24 03:44:00,52.3,47.6,30.21,North,355,0.0,1.0,84,0.00,,,0.00,Wunderground v.1.15,2013-05-24 07:44:00,
2013-05-24 03:46:00,52.2,47.5,30.21,NE,41,0.0,1.0,84,0.00,,,0.00,Wunderground v.1.15,2013-05-24 07:46:00,
2013-05-24 03:49:00,52.2,47.5,30.21,ENE,63,1.0,2.0,84,0.00,,,0.00,Wunderground v.1.15,2013-05-24 07:49:00,
2013-05-24 03:51:00,52.1,47.1,30.21,NNE,18,1.0,2.0,83,0.00,,,0.00,Wunderground v.1.15,2013-05-24 07:51:00,
2013-05-24 03:52:00,52.1,47.4,30.21,NE,56,1.0,1.0,84,0.00,,,0.00,Wunderground v.1.15,2013-05-24 07:52:00,
2013-05-24 03:56:00,52.1,47.7,30.21,NE,41,1.0,1.0,85,0.00,,,0.00,Wunderground v.1.15,2013-05-24 07:56:00,
2013-05-24 03:57:00,52.1,47.4,30.22,NNE,26,1.0,1.0,84,0.00,,,0.00,Wunderground v.1.15,2013-05-24 07:57:00,
2013-05-24 04:00:00,52.1,47.4,30.22,NNE,26,1.0,1.0,84,0.00,,,0.00,Wunderground v.1.15,2013-05-24 08:00:00,
2013-05-24 04:01:00,52.1,47.7,30.22,NNE,26,0.0,1.0,85,0.00,,,0.00,Wunderground v.1.15,2013-05-24 08:01:00,
2013-05-24 04:06:00,52.1,47.4,30.22,North,355,0.0,4.0,84,0.00,,,0.00,Wunderground v.1.15,2013-05-24 08:06:00,
2013-05-24 04:07:00,52.1,47.4,30.22,ENE,57,0.0,4.0,84,0.00,,,0.00,Wunderground v.1.15,2013-05-24 08:07:00,
2013-05-24 04:08:00,52.1,47.4,30.22,ENE,57,1.0,4.0,84,0.00,,,0.00,Wunderground v.1.15,2013-05-24 08:08:00,
2013-05-24 04:12:00,51.9,47.2,30.22,NW,311,1.0,1.0,84,0.00,,,0.00,Wunderground v.1.15,2013-05-24 08:12:00,
2013-05-24 04:13:00,51.9,47.2,30.22,NW,319,1.0,1.0,84,0.00,,,0.00,Wunderground v.1.15,2013-05-24 08:13:00,
2013-05-24 04:14:00,51.9,47.5,30.22,NW,319,0.0,1.0,85,0.00,,,0.00,Wunderground v.1.15,2013-05-24 08:14:00,
2013-05-24 04:15:00,51.8,47.4,30.22,NE,36,0.0,1.0,85,0.00,,,0.00,Wunderground v.1.15,2013-05-24 08:15:00,
2013-05-24 04:19:00,51.6,46.9,30.22,NNW,348,0.0,1.0,84,0.00,,,0.00,Wunderground v.1.15,2013-05-24 08:19:00,
2013-05-24 04:23:00,51.4,47.0,30.22,NNE,13,0.0,2.0,85,0.00,,,0.00,Wunderground v.1.15,2013-05-24 08:23:00,
2013-05-24 04:24:00,51.4,47.0,30.22,NNE,13,0.0,2.0,85,0.00,,,0.00,Wunderground v.1.15,2013-05-24 08:24:00,
2013-05-24 04:25:00,51.3,46.9,30.22,NNE,13,0.0,2.0,85,0.00,,,0.00,Wunderground v.1.15,2013-05-24 08:25:00,
2013-05-24 04:27:00,51.2,46.8,30.22,NNE,13,0.0,2.0,85,0.00,,,0.00,Wunderground v.1.15,2013-05-24 08:27:00,
2013-05-24 04:28:00,51.2,46.8,30.22,NNE,13,0.0,2.0,85,0.00,,,0.00,Wunderground v.1.15,2013-05-24 08:28:00,
2013-05-24 04:31:00,51.0,46.6,30.22,SW,228,0.0,3.0,85,0.00,,,0.00,Wunderground v.1.15,2013-05-24 08:31:00,
2013-05-24 04:33:00,50.9,46.9,30.23,SW,228,0.0,0.0,86,0.00,,,0.00,Wunderground v.1.15,2013-05-24 08:33:00,
2013-05-24 04:34:00,50.9,46.9,30.23,NE,40,0.0,0.0,86,0.00,,,0.00,Wunderground v.1.15,2013-05-24 08:34:00,
2013-05-24 04:38:00,50.7,46.7,30.23,East,91,0.0,1.0,86,0.00,,,0.00,Wunderground v.1.15,2013-05-24 08:38:00,
2013-05-24 04:39:00,50.7,46.7,30.23,North,355,0.0,1.0,86,0.00,,,0.00,Wunderground v.1.15,2013-05-24 08:39:00,
2013-05-24 04:40:00,50.7,46.7,30.23,North,355,0.0,1.0,86,0.00,,,0.00,Wunderground v.1.15,2013-05-24 08:40:00,
2013-05-24 04:41:00,50.6,46.6,30.23,NW,326,0.0,2.0,86,0.00,,,0.00,Wunderground v.1.15,2013-05-24 08:41:00,
2013-05-24 04:45:00,50.4,46.7,30.23,NNE,13,0.0,0.0,87,0.00,,,0.00,Wunderground v.1.15,2013-05-24 08:45:00,
2013-05-24 04:47:00,50.4,46.7,30.23,NNE,13,0.0,0.0,87,0.00,,,0.00,Wunderground v.1.15,2013-05-24 08:47:00,
2013-05-24 04:48:00,50.3,46.6,30.23,North,355,0.0,0.0,87,0.00,,,0.00,Wunderground v.1.15,2013-05-24 08:48:00,
2013-05-24 04:52:00,50.1,46.4,30.23,North,11,0.0,0.0,87,0.00,,,0.00,Wunderground v.1.15,2013-05-24 08:52:00,
2013-05-24 04:54:00,50.1,46.4,30.23,North,5,0.0,1.0,87,0.00,,,0.00,Wunderground v.1.15,2013-05-24 08:54:00,
2013-05-24 04:56:00,50.0,46.6,30.23,North,5,0.0,1.0,88,0.00,,,0.00,Wunderground v.1.15,2013-05-24 08:56:00,
2013-05-24 04:57:00,50.0,46.6,30.23,North,5,0.0,1.0,88,0.00,,,0.00,Wunderground v.1.15,2013-05-24 08:57:00,
2013-05-24 04:58:00,49.9,46.5,30.23,North,5,0.0,1.0,88,0.00,,,0.00,Wunderground v.1.15,2013-05-24 08:58:00,
2013-05-24 04:59:00,49.9,46.5,30.23,North,5,0.0,1.0,88,0.00,,,0.00,Wunderground v.1.15,2013-05-24 08:59:00,
2013-05-24 05:03:00,49.8,46.4,30.24,NW,325,0.0,0.0,88,0.00,,,0.00,Wunderground v.1.15,2013-05-24 09:03:00,
2013-05-24 05:04:00,49.7,46.3,30.24,NW,325,0.0,0.0,88,0.00,,,0.00,Wunderground v.1.15,2013-05-24 09:04:00,
2013-05-24 05:06:00,49.6,46.2,30.24,NW,325,0.0,0.0,88,0.00,,,0.00,Wunderground v.1.15,2013-05-24 09:06:00,
2013-05-24 05:07:00,49.6,46.2,30.24,NW,325,0.0,0.0,88,0.00,,,0.00,Wunderground v.1.15,2013-05-24 09:07:00,
2013-05-24 05:11:00,49.5,46.4,30.24,NNE,18,0.0,0.0,89,0.00,,,0.00,Wunderground v.1.15,2013-05-24 09:11:00,
2013-05-24 05:12:00,49.5,46.4,30.24,NNE,18,0.0,0.0,89,0.00,,,0.00,Wunderground v.1.15,2013-05-24 09:12:00,
2013-05-24 05:13:00,49.4,46.3,30.24,NNE,18,0.0,0.0,89,0.00,,,0.00,Wunderground v.1.15,2013-05-24 09:13:00,
2013-05-24 05:15:00,49.3,46.2,30.24,NNE,18,0.0,0.0,89,0.00,,,0.00,Wunderground v.1.15,2013-05-24 09:15:00,
2013-05-24 05:16:00,49.3,46.2,30.24,North,355,0.0,1.0,89,0.00,,,0.00,Wunderground v.1.15,2013-05-24 09:16:00,
2013-05-24 05:17:00,49.2,46.1,30.24,West,265,0.0,1.0,89,0.00,,,0.00,Wunderground v.1.15,2013-05-24 09:17:00,
2013-05-24 05:18:00,49.2,46.1,30.24,West,265,0.0,1.0,89,0.00,,,0.00,Wunderground v.1.15,2013-05-24 09:18:00,
2013-05-24 05:21:00,49.1,46.0,30.24,NNW,333,0.0,1.0,89,0.00,,,0.00,Wunderground v.1.15,2013-05-24 09:21:00,
2013-05-24 05:23:00,49.0,45.9,30.24,NNW,334,0.0,0.0,89,0.00,,,0.00,Wunderground v.1.15,2013-05-24 09:23:00,
2013-05-24 05:25:00,49.0,45.9,30.24,North,5,0.0,2.0,89,0.00,,,0.00,Wunderground v.1.15,2013-05-24 09:25:00,
2013-05-24 05:27:00,48.9,46.1,30.24,North,5,0.0,2.0,90,0.00,,,0.00,Wunderground v.1.15,2013-05-24 09:27:00,
2013-05-24 05:31:00,48.8,46.0,30.25,North,5,0.0,2.0,90,0.00,,,0.00,Wunderground v.1.15,2013-05-24 09:31:00,
2013-05-24 05:32:00,48.7,45.9,30.25,North,5,0.0,0.0,90,0.00,,,0.00,Wunderground v.1.15,2013-05-24 09:32:00,
2013-05-24 05:34:00,48.7,45.9,30.25,North,5,0.0,0.0,90,0.00,,,0.00,Wunderground v.1.15,2013-05-24 09:34:00,
2013-05-24 05:35:00,48.6,45.8,30.25,NNE,29,0.0,2.0,90,0.00,,,0.00,Wunderground v.1.15,2013-05-24 09:35:00,
2013-05-24 05:39:00,48.6,45.8,30.25,NNE,29,0.0,2.0,90,0.00,,,0.00,Wunderground v.1.15,2013-05-24 09:39:00,
2013-05-24 05:41:00,48.5,46.0,30.25,NNE,29,0.0,2.0,91,0.00,,,0.00,Wunderground v.1.15,2013-05-24 09:41:00,
2013-05-24 05:42:00,48.5,46.0,30.25,NNE,29,0.0,0.0,91,0.00,,,0.00,Wunderground v.1.15,2013-05-24 09:42:00,
2013-05-24 05:45:00,48.4,45.9,30.25,NNE,30,0.0,0.0,91,0.00,,,0.00,Wunderground v.1.15,2013-05-24 09:45:00,
2013-05-24 05:47:00,48.3,45.8,30.25,NNE,30,0.0,0.0,91,0.00,,,0.00,Wunderground v.1.15,2013-05-24 09:47:00,
2013-05-24 05:48:00,48.3,45.5,30.25,NNE,30,0.0,0.0,90,0.00,,,0.00,Wunderground v.1.15,2013-05-24 09:48:00,
2013-05-24 05:49:00,48.3,45.8,30.25,NNE,30,0.0,0.0,91,0.00,,,0.00,Wunderground v.1.15,2013-05-24 09:49:00,
2013-05-24 05:51:00,48.2,45.7,30.25,NNE,30,0.0,0.0,91,0.00,,,0.00,Wunderground v.1.15,2013-05-24 09:51:00,
2013-05-24 05:52:00,48.2,45.7,30.25,NNE,30,0.0,0.0,91,0.00,,,0.00,Wunderground v.1.15,2013-05-24 09:52:00,
2013-05-24 05:53:00,48.1,45.6,30.25,NNE,30,0.0,0.0,91,0.00,,,0.00,Wunderground v.1.15,2013-05-24 09:53:00,
2013-05-24 05:54:00,48.1,45.6,30.25,NNE,30,0.0,0.0,91,0.00,,,0.00,Wunderground v.1.15,2013-05-24 09:54:00,
2013-05-24 05:58:00,48.1,45.6,30.25,NNE,30,0.0,0.0,91,0.00,,,0.00,Wunderground v.1.15,2013-05-24 09:58:00,
2013-05-24 06:00:00,48.0,45.5,30.26,NNE,30,0.0,0.0,91,0.00,,,0.00,Wunderground v.1.15,2013-05-24 10:00:00,
2013-05-24 06:03:00,47.9,45.4,30.26,NNE,30,0.0,0.0,91,0.00,,,0.00,Wunderground v.1.15,2013-05-24 10:03:00,
2013-05-24 06:07:00,47.8,45.3,30.26,NNE,30,0.0,0.0,91,0.00,,,0.00,Wunderground v.1.15,2013-05-24 10:07:00,
2013-05-24 06:08:00,47.7,45.2,30.26,NNE,30,0.0,0.0,91,0.00,,,0.00,Wunderground v.1.15,2013-05-24 10:08:00,
2013-05-24 06:09:00,47.7,45.2,30.26,NNE,30,0.0,0.0,91,0.00,,,0.00,Wunderground v.1.15,2013-05-24 10:09:00,
2013-05-24 06:11:00,47.6,45.1,30.26,NNE,30,0.0,0.0,91,0.00,,,0.00,Wunderground v.1.15,2013-05-24 10:11:00,
2013-05-24 06:13:00,47.6,45.1,30.26,NNE,30,0.0,0.0,91,0.00,,,0.00,Wunderground v.1.15,2013-05-24 10:13:00,
2013-05-24 06:15:00,47.5,45.3,30.26,NNE,30,0.0,0.0,92,0.00,,,0.00,Wunderground v.1.15,2013-05-24 10:15:00,
2013-05-24 06:17:00,47.4,45.2,30.26,NNE,30,0.0,0.0,92,0.00,,,0.00,Wunderground v.1.15,2013-05-24 10:17:00,
2013-05-24 06:18:00,47.4,44.9,30.26,NNE,30,0.0,0.0,91,0.00,,,0.00,Wunderground v.1.15,2013-05-24 10:18:00,
2013-05-24 06:20:00,47.4,45.2,30.26,NNE,30,0.0,0.0,92,0.00,,,0.00,Wunderground v.1.15,2013-05-24 10:20:00,
2013-05-24 06:21:00,47.3,45.1,30.26,NNE,30,0.0,0.0,92,0.00,,,0.00,Wunderground v.1.15,2013-05-24 10:21:00,
2013-05-24 06:23:00,47.3,45.1,30.26,NW,325,0.0,0.0,92,0.00,,,0.00,Wunderground v.1.15,2013-05-24 10:23:00,
2013-05-24 06:24:00,47.3,45.1,30.26,NW,325,0.0,0.0,92,0.00,,,0.00,Wunderground v.1.15,2013-05-24 10:24:00,
2013-05-24 06:26:00,47.2,45.0,30.26,NW,325,0.0,0.0,92,0.00,,,0.00,Wunderground v.1.15,2013-05-24 10:26:00,
2013-05-24 06:27:00,47.2,45.0,30.26,NW,325,0.0,0.0,92,0.00,,,0.00,Wunderground v.1.15,2013-05-24 10:27:00,
2013-05-24 06:29:00,47.2,45.0,30.26,NW,325,0.0,0.0,92,0.00,,,0.00,Wunderground v.1.15,2013-05-24 10:29:00,
2013-05-24 06:30:00,47.2,45.0,30.26,NW,325,0.0,0.0,92,0.00,,,0.00,Wunderground v.1.15,2013-05-24 10:30:00,
2013-05-24 06:31:00,47.2,45.0,30.26,NW,325,0.0,0.0,92,0.00,,,0.00,Wunderground v.1.15,2013-05-24 10:31:00,
2013-05-24 06:34:00,47.1,44.9,30.27,NW,325,0.0,0.0,92,0.00,,,0.00,Wunderground v.1.15,2013-05-24 10:34:00,
2013-05-24 06:35:00,47.1,44.9,30.27,NW,325,0.0,0.0,92,0.00,,,0.00,Wunderground v.1.15,2013-05-24 10:35:00,
2013-05-24 06:36:00,47.0,44.8,30.27,NW,325,0.0,0.0,92,0.00,,,0.00,Wunderground v.1.15,2013-05-24 10:36:00,
2013-05-24 06:39:00,46.9,44.7,30.27,NW,325,0.0,0.0,92,0.00,,,0.00,Wunderground v.1.15,2013-05-24 10:39:00,
2013-05-24 06:40:00,46.9,44.7,30.27,NW,325,0.0,0.0,92,0.00,,,0.00,Wunderground v.1.15,2013-05-24 10:40:00,
2013-05-24 06:41:00,46.9,44.7,30.27,NW,325,0.0,0.0,92,0.00,,,0.00,Wunderground v.1.15,2013-05-24 10:41:00,
2013-05-24 06:44:00,46.8,44.6,30.27,NW,325,0.0,0.0,92,0.00,,,0.00,Wunderground v.1.15,2013-05-24 10:44:00,
2013-05-24 06:45:00,46.8,44.6,30.27,North,5,0.0,0.0,92,0.00,,,0.00,Wunderground v.1.15,2013-05-24 10:45:00,
2013-05-24 06:47:00,46.8,44.6,30.27,North,5,0.0,0.0,92,0.00,,,0.00,Wunderground v.1.15,2013-05-24 10:47:00,
2013-05-24 06:48:00,46.8,44.6,30.27,North,5,0.0,0.0,92,0.00,,,0.00,Wunderground v.1.15,2013-05-24 10:48:00,
2013-05-24 06:50:00,46.8,44.9,30.28,North,5,0.0,0.0,93,0.00,,,0.00,Wunderground v.1.15,2013-05-24 10:50:00,
2013-05-24 06:52:00,46.8,44.9,30.27,North,5,0.0,0.0,93,0.00,,,0.00,Wunderground v.1.15,2013-05-24 10:52:00,
2013-05-24 06:53:00,46.8,44.9,30.27,North,5,0.0,0.0,93,0.00,,,0.00,Wunderground v.1.15,2013-05-24 10:53:00,
2013-05-24 06:54:00,46.8,44.9,30.27,North,5,0.0,2.0,93,0.00,,,0.00,Wunderground v.1.15,2013-05-24 10:54:00,
2013-05-24 06:55:00,46.8,44.9,30.27,North,5,0.0,2.0,93,0.00,,,0.00,Wunderground v.1.15,2013-05-24 10:55:00,
2013-05-24 06:56:00,46.7,44.8,30.27,North,5,0.0,2.0,93,0.00,,,0.00,Wunderground v.1.15,2013-05-24 10:56:00,
2013-05-24 06:59:00,46.7,44.8,30.27,North,9,0.0,2.0,93,0.00,,,0.00,Wunderground v.1.15,2013-05-24 10:59:00,
2013-05-24 07:00:00,46.7,44.8,30.27,North,9,0.0,2.0,93,0.00,,,0.00,Wunderground v.1.15,2013-05-24 11:00:00,
2013-05-24 07:01:00,46.7,44.8,30.27,NNE,17,0.0,2.0,93,0.00,,,0.00,Wunderground v.1.15,2013-05-24 11:01:00,
2013-05-24 07:03:00,46.7,44.8,30.27,NW,313,0.0,0.0,93,0.00,,,0.00,Wunderground v.1.15,2013-05-24 11:03:00,
2013-05-24 07:07:00,46.7,44.8,30.27,North,5,0.0,0.0,93,0.00,,,0.00,Wunderground v.1.15,2013-05-24 11:07:00,
2013-05-24 07:08:00,46.7,44.8,30.27,North,5,0.0,0.0,93,0.00,,,0.00,Wunderground v.1.15,2013-05-24 11:08:00,
2013-05-24 07:10:00,46.8,44.9,30.28,North,5,0.0,0.0,93,0.00,,,0.00,Wunderground v.1.15,2013-05-24 11:10:00,
2013-05-24 07:12:00,46.8,44.9,30.28,North,5,0.0,0.0,93,0.00,,,0.00,Wunderground v.1.15,2013-05-24 11:12:00,
2013-05-24 07:14:00,46.8,44.9,30.28,North,5,0.0,0.0,93,0.00,,,0.00,Wunderground v.1.15,2013-05-24 11:14:00,
2013-05-24 07:15:00,46.8,44.9,30.28,North,5,0.0,0.0,93,0.00,,,0.00,Wunderground v.1.15,2013-05-24 11:15:00,
2013-05-24 07:17:00,46.9,45.0,30.28,North,5,0.0,0.0,93,0.00,,,0.00,Wunderground v.1.15,2013-05-24 11:17:00,
2013-05-24 07:19:00,46.9,45.0,30.28,North,360,0.0,2.0,93,0.00,,,0.00,Wunderground v.1.15,2013-05-24 11:19:00,
2013-05-24 07:21:00,47.0,45.1,30.28,North,360,0.0,2.0,93,0.00,,,0.00,Wunderground v.1.15,2013-05-24 11:21:00,
2013-05-24 07:22:00,47.0,45.1,30.28,North,360,0.0,0.0,93,0.00,,,0.00,Wunderground v.1.15,2013-05-24 11:22:00,
2013-05-24 07:23:00,47.0,45.1,30.28,North,5,0.0,0.0,93,0.00,,,0.00,Wunderground v.1.15,2013-05-24 11:23:00,
2013-05-24 07:24:00,47.0,45.1,30.28,NNE,17,0.0,0.0,93,0.00,,,0.00,Wunderground v.1.15,2013-05-24 11:24:00,
2013-05-24 07:26:00,47.0,45.1,30.28,NNE,17,0.0,0.0,93,0.00,,,0.00,Wunderground v.1.15,2013-05-24 11:26:00,
2013-05-24 07:27:00,47.1,45.2,30.28,NE,47,0.0,0.0,93,0.00,,,0.00,Wunderground v.1.15,2013-05-24 11:27:00,
2013-05-24 07:30:00,47.1,45.2,30.28,WNW,284,0.0,0.0,93,0.00,,,0.00,Wunderground v.1.15,2013-05-24 11:30:00,
2013-05-24 07:32:00,47.2,45.3,30.29,WNW,284,0.0,0.0,93,0.00,,,0.00,Wunderground v.1.15,2013-05-24 11:32:00,
2013-05-24 07:34:00,47.2,45.3,30.29,WNW,284,0.0,0.0,93,0.00,,,0.00,Wunderground v.1.15,2013-05-24 11:34:00,
2013-05-24 07:35:00,47.2,45.3,30.29,WNW,284,0.0,0.0,93,0.00,,,0.00,Wunderground v.1.15,2013-05-24 11:35:00,
2013-05-24 07:38:00,47.2,45.3,30.29,WNW,284,0.0,0.0,93,0.00,,,0.00,Wunderground v.1.15,2013-05-24 11:38:00,
2013-05-24 07:39:00,47.2,45.3,30.29,WNW,284,0.0,0.0,93,0.00,,,0.00,Wunderground v.1.15,2013-05-24 11:39:00,
2013-05-24 07:44:00,47.2,45.0,30.30,NE,54,0.0,0.0,92,0.00,,,0.00,Wunderground v.1.15,2013-05-24 11:44:00,
2013-05-24 07:46:00,47.3,45.4,30.30,NE,54,0.0,0.0,93,0.00,,,0.00,Wunderground v.1.15,2013-05-24 11:46:00,
2013-05-24 07:49:00,47.4,45.5,30.30,NE,54,0.0,0.0,93,0.00,,,0.00,Wunderground v.1.15,2013-05-24 11:49:00,
2013-05-24 07:52:00,47.6,45.7,30.30,NE,42,0.0,0.0,93,0.00,,,0.00,Wunderground v.1.15,2013-05-24 11:52:00,
2013-05-24 07:53:00,47.6,45.7,30.30,NE,42,0.0,0.0,93,0.00,,,0.00,Wunderground v.1.15,2013-05-24 11:53:00,
2013-05-24 07:57:00,47.8,45.9,30.30,NNE,18,0.0,1.0,93,0.00,,,0.00,Wunderground v.1.15,2013-05-24 11:57:00,
2013-05-24 07:58:00,47.9,45.7,30.31,NE,38,0.0,1.0,92,0.00,,,0.00,Wunderground v.1.15,2013-05-24 11:58:00,
2013-05-24 08:00:00,47.9,45.7,30.31,North,360,1.0,3.0,92,0.00,,,0.00,Wunderground v.1.15,2013-05-24 12:00:00,
2013-05-24 08:01:00,47.9,45.7,30.31,NNE,13,1.0,3.0,92,0.00,,,0.00,Wunderground v.1.15,2013-05-24 12:01:00,
2013-05-24 08:03:00,47.9,45.7,30.31,NNE,13,1.0,1.0,92,0.00,,,0.00,Wunderground v.1.15,2013-05-24 12:03:00,
2013-05-24 08:05:00,48.0,45.8,30.31,NNE,13,1.0,1.0,92,0.00,,,0.00,Wunderground v.1.15,2013-05-24 12:05:00,
2013-05-24 08:09:00,48.2,46.0,30.31,NNE,17,0.0,2.0,92,0.00,,,0.00,Wunderground v.1.15,2013-05-24 12:09:00,
2013-05-24 08:10:00,48.2,46.0,30.31,NNE,17,0.0,2.0,92,0.00,,,0.00,Wunderground v.1.15,2013-05-24 12:10:00,
2013-05-24 08:11:00,48.3,46.1,30.31,NNE,17,0.0,2.0,92,0.00,,,0.00,Wunderground v.1.15,2013-05-24 12:11:00,
2013-05-24 08:13:00,48.4,46.2,30.31,WSW,254,0.0,2.0,92,0.00,,,0.00,Wunderground v.1.15,2013-05-24 12:13:00,
2013-05-24 08:14:00,48.5,46.3,30.31,NNW,339,0.0,2.0,92,0.00,,,0.00,Wunderground v.1.15,2013-05-24 12:14:00,
2013-05-24 08:16:00,48.4,45.9,30.31,ENE,61,1.0,2.0,91,0.00,,,0.00,Wunderground v.1.15,2013-05-24 12:16:00,
2013-05-24 08:17:00,48.4,45.9,30.31,NNE,14,1.0,2.0,91,0.00,,,0.00,Wunderground v.1.15,2013-05-24 12:17:00,
2013-05-24 08:18:00,48.4,45.9,30.31,NE,55,1.0,2.0,91,0.00,,,0.00,Wunderground v.1.15,2013-05-24 12:18:00,
2013-05-24 08:21:00,48.4,45.9,30.31,ENE,59,1.0,2.0,91,0.00,,,0.00,Wunderground v.1.15,2013-05-24 12:21:00,
2013-05-24 08:22:00,48.4,45.9,30.31,ENE,59,1.0,1.0,91,0.00,,,0.00,Wunderground v.1.15,2013-05-24 12:22:00,
2013-05-24 08:26:00,48.5,46.0,30.32,NNW,347,1.0,2.0,91,0.00,,,0.00,Wunderground v.1.15,2013-05-24 12:26:00,
2013-05-24 08:28:00,48.6,46.1,30.32,NNW,347,1.0,2.0,91,0.00,,,0.00,Wunderground v.1.15,2013-05-24 12:28:00,
2013-05-24 08:30:00,48.7,45.9,30.32,NE,38,1.0,2.0,90,0.00,,,0.00,Wunderground v.1.15,2013-05-24 12:30:00,
2013-05-24 08:32:00,48.7,45.9,30.32,NNE,32,1.0,2.0,90,0.00,,,0.00,Wunderground v.1.15,2013-05-24 12:32:00,
2013-05-24 08:33:00,48.7,45.9,30.32,NNE,26,1.0,2.0,90,0.00,,,0.00,Wunderground v.1.15,2013-05-24 12:33:00,
2013-05-24 08:34:00,48.8,46.0,30.32,NNE,26,1.0,2.0,90,0.00,,,0.00,Wunderground v.1.15,2013-05-24 12:34:00,
2013-05-24 08:36:00,48.9,46.1,30.32,North,5,0.0,2.0,90,0.00,,,0.00,Wunderground v.1.15,2013-05-24 12:36:00,
2013-05-24 08:37:00,49.0,46.2,30.32,NW,323,0.0,2.0,90,0.00,,,0.00,Wunderground v.1.15,2013-05-24 12:37:00,
2013-05-24 08:43:00,49.3,46.2,30.32,NNW,342,1.0,2.0,89,0.00,,,0.00,Wunderground v.1.15,2013-05-24 12:43:00,
2013-05-24 08:44:00,49.4,46.3,30.32,North,5,1.0,4.0,89,0.00,,,0.00,Wunderground v.1.15,2013-05-24 12:44:00,
2013-05-24 08:45:00,49.4,46.6,30.33,NNE,31,1.0,4.0,90,0.00,,,0.00,Wunderground v.1.15,2013-05-24 12:45:00,
2013-05-24 08:47:00,49.5,46.4,30.33,North,360,1.0,4.0,89,0.00,,,0.00,Wunderground v.1.15,2013-05-24 12:47:00,
2013-05-24 08:49:00,49.6,46.5,30.33,North,11,1.0,4.0,89,0.00,,,0.00,Wunderground v.1.15,2013-05-24 12:49:00,
2013-05-24 08:51:00,49.7,46.6,30.33,NNE,17,1.0,4.0,89,0.00,,,0.00,Wunderground v.1.15,2013-05-24 12:51:00,
2013-05-24 08:52:00,49.7,46.6,30.33,NNE,17,1.0,1.0,89,0.00,,,0.00,Wunderground v.1.15,2013-05-24 12:52:00,
2013-05-24 08:53:00,49.8,46.7,30.33,NNE,17,1.0,1.0,89,0.00,,,0.00,Wunderground v.1.15,2013-05-24 12:53:00,
2013-05-24 08:57:00,50.0,46.9,30.33,NNE,22,0.0,1.0,89,0.00,,,0.00,Wunderground v.1.15,2013-05-24 12:57:00,
2013-05-24 08:58:00,50.1,47.0,30.33,NNE,22,0.0,1.0,89,0.00,,,0.00,Wunderground v.1.15,2013-05-24 12:58:00,
2013-05-24 08:59:00,50.1,47.0,30.33,NNE,22,0.0,1.0,89,0.00,,,0.00,Wunderground v.1.15,2013-05-24 12:59:00,
2013-05-24 09:00:00,50.3,47.2,30.33,NNE,22,0.0,1.0,89,0.00,,,0.00,Wunderground v.1.15,2013-05-24 13:00:00,
2013-05-24 09:03:00,50.6,47.5,30.33,NNE,21,0.0,0.0,89,0.00,,,0.00,Wunderground v.1.15,2013-05-24 13:03:00,
2013-05-24 09:04:00,50.6,47.5,30.33,North,9,0.0,3.0,89,0.00,,,0.00,Wunderground v.1.15,2013-05-24 13:04:00,
2013-05-24 09:09:00,51.2,47.5,30.33,North,11,0.0,3.0,87,0.00,,,0.00,Wunderground v.1.15,2013-05-24 13:09:00,
2013-05-24 09:10:00,51.2,47.5,30.33,North,11,0.0,3.0,87,0.00,,,0.00,Wunderground v.1.15,2013-05-24 13:10:00,
2013-05-24 09:11:00,51.3,47.6,30.34,North,11,0.0,3.0,87,0.00,,,0.00,Wunderground v.1.15,2013-05-24 13:11:00,
2013-05-24 09:15:00,51.7,48.0,30.34,NE,38,0.0,1.0,87,0.00,,,0.00,Wunderground v.1.15,2013-05-24 13:15:00,
2013-05-24 09:18:00,52.1,48.0,30.34,NE,38,0.0,1.0,86,0.00,,,0.00,Wunderground v.1.15,2013-05-24 13:18:00,
2013-05-24 09:19:00,52.1,48.0,30.34,NE,38,0.0,1.0,86,0.00,,,0.00,Wunderground v.1.15,2013-05-24 13:19:00,
2013-05-24 09:21:00,52.3,48.2,30.34,NE,39,0.0,1.0,86,0.00,,,0.00,Wunderground v.1.15,2013-05-24 13:21:00,
2013-05-24 09:22:00,52.3,48.2,30.34,NE,39,0.0,0.0,86,0.00,,,0.00,Wunderground v.1.15,2013-05-24 13:22:00,
2013-05-24 09:24:00,52.4,48.0,30.34,NNW,342,0.0,2.0,85,0.00,,,0.00,Wunderground v.1.15,2013-05-24 13:24:00,
2013-05-24 09:26:00,52.5,48.1,30.34,ESE,103,0.0,2.0,85,0.00,,,0.00,Wunderground v.1.15,2013-05-24 13:26:00,
2013-05-24 09:27:00,52.5,48.1,30.34,ESE,103,0.0,2.0,85,0.00,,,0.00,Wunderground v.1.15,2013-05-24 13:27:00,
2013-05-24 09:29:00,52.5,47.8,30.34,WNW,299,0.0,2.0,84,0.00,,,0.00,Wunderground v.1.15,2013-05-24 13:29:00,
2013-05-24 09:30:00,52.4,47.7,30.34,WNW,299,0.0,2.0,84,0.00,,,0.00,Wunderground v.1.15,2013-05-24 13:30:00,
2013-05-24 09:34:00,52.5,48.1,30.35,WNW,300,0.0,0.0,85,0.00,,,0.00,Wunderground v.1.15,2013-05-24 13:34:00,
2013-05-24 09:35:00,52.4,47.7,30.35,North,360,0.0,2.0,84,0.00,,,0.00,Wunderground v.1.15,2013-05-24 13:35:00,
2013-05-24 09:36:00,52.4,47.7,30.35,North,360,0.0,2.0,84,0.00,,,0.00,Wunderground v.1.15,2013-05-24 13:36:00,
2013-05-24 09:39:00,52.3,47.6,30.35,North,355,0.0,2.0,84,0.00,,,0.00,Wunderground v.1.15,2013-05-24 13:39:00,
2013-05-24 09:41:00,52.3,47.6,30.35,NE,36,1.0,2.0,84,0.00,,,0.00,Wunderground v.1.15,2013-05-24 13:41:00,
2013-05-24 09:42:00,52.3,47.6,30.35,NE,36,1.0,1.0,84,0.00,,,0.00,Wunderground v.1.15,2013-05-24 13:42:00,
2013-05-24 09:43:00,52.3,47.6,30.35,NE,36,1.0,1.0,84,0.00,,,0.00,Wunderground v.1.15,2013-05-24 13:43:00,
2013-05-24 09:46:00,52.5,48.1,30.35,NE,36,0.0,1.0,85,0.00,,,0.00,Wunderground v.1.15,2013-05-24 13:46:00,
2013-05-24 09:48:00,52.6,48.2,30.35,NE,36,0.0,1.0,85,0.00,,,0.00,Wunderground v.1.15,2013-05-24 13:48:00,
2013-05-24 09:51:00,53.0,48.6,30.35,West,268,0.0,1.0,85,0.00,,,0.00,Wunderground v.1.15,2013-05-24 13:51:00,
2013-05-24 09:53:00,53.2,48.5,30.35,WSW,242,0.0,0.0,84,0.00,,,0.00,Wunderground v.1.15,2013-05-24 13:53:00,
2013-05-24 09:54:00,53.3,48.6,30.35,WSW,242,0.0,0.0,84,0.00,,,0.00,Wunderground v.1.15,2013-05-24 13:54:00,
2013-05-24 09:58:00,53.9,48.5,30.36,North,350,0.0,1.0,82,0.00,,,0.00,Wunderground v.1.15,2013-05-24 13:58:00,
2013-05-24 09:59:00,54.0,48.6,30.36,NNE,17,0.0,1.0,82,0.00,,,0.00,Wunderground v.1.15,2013-05-24 13:59:00,
2013-05-24 10:00:00,54.1,48.7,30.36,SSW,198,0.0,1.0,82,0.00,,,0.00,Wunderground v.1.15,2013-05-24 14:00:00,
2013-05-24 10:01:00,54.2,48.8,30.36,North,5,0.0,2.0,82,0.00,,,0.00,Wunderground v.1.15,2013-05-24 14:01:00,
2013-05-24 10:02:00,54.3,48.9,30.36,NNE,26,0.0,0.0,82,0.00,,,0.00,Wunderground v.1.15,2013-05-24 14:02:00,
2013-05-24 10:04:00,54.5,49.1,30.36,NNE,26,0.0,0.0,82,0.00,,,0.00,Wunderground v.1.15,2013-05-24 14:04:00,
2013-05-24 10:06:00,54.6,48.9,30.36,NNW,341,0.0,0.0,81,0.00,,,0.00,Wunderground v.1.15,2013-05-24 14:06:00,
2013-05-24 10:08:00,54.7,49.0,30.36,ENE,77,0.0,2.0,81,0.00,,,0.00,Wunderground v.1.15,2013-05-24 14:08:00,
2013-05-24 10:09:00,54.8,49.1,30.36,ENE,77,0.0,2.0,81,0.00,,,0.00,Wunderground v.1.15,2013-05-24 14:09:00,
2013-05-24 10:11:00,54.9,49.2,30.36,WNW,298,0.0,3.0,81,0.00,,,0.00,Wunderground v.1.15,2013-05-24 14:11:00,
2013-05-24 10:13:00,55.1,49.4,30.35,NW,323,0.0,1.0,81,0.00,,,0.00,Wunderground v.1.15,2013-05-24 14:13:00,
2013-05-24 10:15:00,55.3,48.9,30.35,ESE,113,1.0,2.0,79,0.00,,,0.00,Wunderground v.1.15,2013-05-24 14:15:00,
2013-05-24 10:16:00,55.4,49.0,30.35,North,355,1.0,5.0,79,0.00,,,0.00,Wunderground v.1.15,2013-05-24 14:16:00,
2013-05-24 10:17:00,55.3,48.6,30.35,ENE,70,1.0,5.0,78,0.00,,,0.00,Wunderground v.1.15,2013-05-24 14:17:00,
2013-05-24 10:22:00,54.9,48.5,30.36,NNE,25,1.0,1.0,79,0.00,,,0.00,Wunderground v.1.15,2013-05-24 14:22:00,
2013-05-24 10:23:00,55.0,48.9,30.36,NNE,25,1.0,1.0,80,0.00,,,0.00,Wunderground v.1.15,2013-05-24 14:23:00,
2013-05-24 10:24:00,55.0,48.9,30.36,NE,35,1.0,1.0,80,0.00,,,0.00,Wunderground v.1.15,2013-05-24 14:24:00,
2013-05-24 10:25:00,55.1,49.0,30.36,NE,55,1.0,1.0,80,0.00,,,0.00,Wunderground v.1.15,2013-05-24 14:25:00,
2013-05-24 10:28:00,55.6,49.5,30.36,North,355,1.0,1.0,80,0.00,,,0.00,Wunderground v.1.15,2013-05-24 14:28:00,
2013-05-24 10:30:00,56.1,50.3,30.36,ENE,65,1.0,4.0,81,0.00,,,0.00,Wunderground v.1.15,2013-05-24 14:30:00,
2013-05-24 10:31:00,56.2,49.8,30.36,ENE,65,1.0,4.0,79,0.00,,,0.00,Wunderground v.1.15,2013-05-24 14:31:00,
2013-05-24 10:32:00,56.4,48.9,30.36,ENE,58,1.0,1.0,76,0.00,,,0.00,Wunderground v.1.15,2013-05-24 14:32:00,
2013-05-24 10:35:00,56.6,49.5,30.36,NNE,32,1.0,1.0,77,0.00,,,0.00,Wunderground v.1.15,2013-05-24 14:35:00,
2013-05-24 10:37:00,56.8,49.7,30.36,East,97,1.0,3.0,77,0.00,,,0.00,Wunderground v.1.15,2013-05-24 14:37:00,
2013-05-24 10:39:00,56.7,48.9,30.36,East,97,1.0,3.0,75,0.00,,,0.00,Wunderground v.1.15,2013-05-24 14:39:00,
2013-05-24 10:40:00,56.6,49.1,30.36,ENE,57,1.0,3.0,76,0.00,,,0.00,Wunderground v.1.15,2013-05-24 14:40:00,
2013-05-24 10:42:00,56.4,49.6,30.36,WSW,254,1.0,1.0,78,0.00,,,0.00,Wunderground v.1.15,2013-05-24 14:42:00,
2013-05-24 10:43:00,56.4,49.3,30.36,NW,325,1.0,1.0,77,0.00,,,0.00,Wunderground v.1.15,2013-05-24 14:43:00,
2013-05-24 10:45:00,56.1,48.6,30.36,North,350,1.0,2.0,76,0.00,,,0.00,Wunderground v.1.15,2013-05-24 14:45:00,
2013-05-24 10:48:00,56.2,49.1,30.36,NE,38,1.0,2.0,77,0.00,,,0.00,Wunderground v.1.15,2013-05-24 14:48:00,
2013-05-24 10:50:00,56.6,49.8,30.36,NE,47,1.0,4.0,78,0.00,,,0.00,Wunderground v.1.15,2013-05-24 14:50:00,
2013-05-24 10:51:00,56.7,49.6,30.36,North,11,1.0,4.0,77,0.00,,,0.00,Wunderground v.1.15,2013-05-24 14:51:00,
2013-05-24 10:53:00,57.2,49.7,30.36,NW,318,1.0,1.0,76,0.00,,,0.00,Wunderground v.1.15,2013-05-24 14:53:00,
2013-05-24 10:56:00,57.9,50.7,30.37,NW,316,1.0,1.0,77,0.00,,,0.00,Wunderground v.1.15,2013-05-24 14:56:00,
2013-05-24 10:57:00,58.2,51.0,30.37,NW,316,1.0,1.0,77,0.00,,,0.00,Wunderground v.1.15,2013-05-24 14:57:00,
2013-05-24 11:00:00,58.9,50.6,30.37,North,9,1.0,1.0,74,0.00,,,0.00,Wunderground v.1.15,2013-05-24 15:00:00,
2013-05-24 11:02:00,59.1,50.1,30.36,NE,56,1.0,1.0,72,0.00,,,0.00,Wunderground v.1.15,2013-05-24 15:02:00,
2013-05-24 11:03:00,59.3,51.0,30.36,NE,56,1.0,1.0,74,0.00,,,0.00,Wunderground v.1.15,2013-05-24 15:03:00,
2013-05-24 11:07:00,59.2,50.2,30.37,North,5,1.0,1.0,72,0.00,,,0.00,Wunderground v.1.15,2013-05-24 15:07:00,
2013-05-24 11:09:00,58.9,49.5,30.37,North,5,1.0,1.0,71,0.00,,,0.00,Wunderground v.1.15,2013-05-24 15:09:00,
2013-05-24 11:10:00,58.6,49.2,30.36,North,355,1.0,1.0,71,0.00,,,0.00,Wunderground v.1.15,2013-05-24 15:10:00,
2013-05-24 11:11:00,58.3,48.6,30.37,North,5,1.0,3.0,70,0.00,,,0.00,Wunderground v.1.15,2013-05-24 15:11:00,
2013-05-24 11:12:00,58.2,48.5,30.37,NNE,22,1.0,1.0,70,0.00,,,0.00,Wunderground v.1.15,2013-05-24 15:12:00,
2013-05-24 11:15:00,58.0,48.6,30.37,North,5,1.0,2.0,71,0.00,,,0.00,Wunderground v.1.15,2013-05-24 15:15:00,
2013-05-24 11:18:00,58.2,49.6,30.37,ENE,63,1.0,5.0,73,0.00,,,0.00,Wunderground v.1.15,2013-05-24 15:18:00,
2013-05-24 11:19:00,58.3,49.3,30.37,SE,136,1.0,5.0,72,0.00,,,0.00,Wunderground v.1.15,2013-05-24 15:19:00,
2013-05-24 11:21:00,58.7,48.9,30.37,NNE,16,1.0,5.0,70,0.00,,,0.00,Wunderground v.1.15,2013-05-24 15:21:00,
2013-05-24 11:25:00,59.4,49.2,30.37,West,261,1.0,7.0,69,0.00,,,0.00,Wunderground v.1.15,2013-05-24 15:25:00,
2013-05-24 11:27:00,59.4,49.6,30.37,WSW,254,1.0,7.0,70,0.00,,,0.00,Wunderground v.1.15,2013-05-24 15:27:00,
2013-05-24 11:30:00,59.5,50.1,30.37,North,360,1.0,7.0,71,0.00,,,0.00,Wunderground v.1.15,2013-05-24 15:30:00,
2013-05-24 11:32:00,59.3,49.5,30.37,NNW,344,1.0,1.0,70,0.00,,,0.00,Wunderground v.1.15,2013-05-24 15:32:00,
2013-05-24 11:33:00,59.3,49.5,30.37,North,5,1.0,1.0,70,0.00,,,0.00,Wunderground v.1.15,2013-05-24 15:33:00,
2013-05-24 11:36:00,59.2,49.8,30.37,NW,325,1.0,1.0,71,0.00,,,0.00,Wunderground v.1.15,2013-05-24 15:36:00,
2013-05-24 11:38:00,59.4,49.2,30.37,NE,40,1.0,2.0,69,0.00,,,0.00,Wunderground v.1.15,2013-05-24 15:38:00,
2013-05-24 11:39:00,59.5,49.3,30.37,NE,34,1.0,2.0,69,0.00,,,0.00,Wunderground v.1.15,2013-05-24 15:39:00,
2013-05-24 11:40:00,59.6,49.4,30.37,ENE,74,1.0,2.0,69,0.00,,,0.00,Wunderground v.1.15,2013-05-24 15:40:00,
2013-05-24 11:41:00,59.7,49.1,30.37,WSW,239,1.0,2.0,68,0.00,,,0.00,Wunderground v.1.15,2013-05-24 15:41:00,
2013-05-24 11:44:00,59.9,49.3,30.37,WSW,254,2.0,3.0,68,0.00,,,0.00,Wunderground v.1.15,2013-05-24 15:44:00,
2013-05-24 11:45:00,59.9,49.3,30.37,WSW,250,2.0,3.0,68,0.00,,,0.00,Wunderground v.1.15,2013-05-24 15:45:00,
2013-05-24 11:46:00,59.8,48.8,30.37,WNW,302,2.0,3.0,67,0.00,,,0.00,Wunderground v.1.15,2013-05-24 15:46:00,
2013-05-24 11:48:00,59.3,48.3,30.37,West,281,2.0,3.0,67,0.00,,,0.00,Wunderground v.1.15,2013-05-24 15:48:00,
2013-05-24 11:49:00,59.2,48.6,30.37,NNE,26,2.0,3.0,68,0.00,,,0.00,Wunderground v.1.15,2013-05-24 15:49:00,
2013-05-24 11:50:00,59.3,49.5,30.37,NNE,28,1.0,3.0,70,0.00,,,0.00,Wunderground v.1.15,2013-05-24 15:50:00,
2013-05-24 11:53:00,59.9,50.1,30.37,NNE,31,1.0,3.0,70,0.00,,,0.00,Wunderground v.1.15,2013-05-24 15:53:00,
2013-05-24 11:55:00,60.3,48.9,30.37,West,269,1.0,3.0,66,0.00,,,0.00,Wunderground v.1.15,2013-05-24 15:55:00,
2013-05-24 11:56:00,60.3,48.5,30.37,SW,221,1.0,3.0,65,0.00,,,0.00,Wunderground v.1.15,2013-05-24 15:56:00,
2013-05-24 11:58:00,60.3,48.5,30.37,SW,227,1.0,3.0,65,0.00,,,0.00,Wunderground v.1.15,2013-05-24 15:58:00,
2013-05-24 11:59:00,60.4,48.6,30.37,North,10,1.0,4.0,65,0.00,,,0.00,Wunderground v.1.15,2013-05-24 15:59:00,
2013-05-24 12:00:00,60.6,48.8,30.37,NE,50,1.0,4.0,65,0.00,,,0.00,Wunderground v.1.15,2013-05-24 16:00:00,
2013-05-24 12:02:00,60.7,48.4,30.37,WNW,301,1.0,1.0,64,0.00,,,0.00,Wunderground v.1.15,2013-05-24 16:02:00,
2013-05-24 12:04:00,60.7,48.0,30.37,NNW,348,2.0,2.0,63,0.00,,,0.00,Wunderground v.1.15,2013-05-24 16:04:00,
2013-05-24 12:06:00,60.9,49.1,30.37,North,360,2.0,2.0,65,0.00,,,0.00,Wunderground v.1.15,2013-05-24 16:06:00,
2013-05-24 12:07:00,61.0,48.3,30.37,ENE,63,2.0,3.0,63,0.00,,,0.00,Wunderground v.1.15,2013-05-24 16:07:00,
2013-05-24 12:08:00,61.1,48.4,30.37,ESE,107,2.0,3.0,63,0.00,,,0.00,Wunderground v.1.15,2013-05-24 16:08:00,
2013-05-24 12:09:00,52.7,47.0,30.34,NE,44,0.0,0.0,81,0.00,,,0.00,Wunderground v.1.15,2013-05-24 16:09:00,
2013-05-24 12:10:00,61.3,49.4,30.37,WNW,302,2.0,3.0,65,0.00,,,0.00,Wunderground v.1.15,2013-05-24 16:10:00,
2013-05-24 12:11:00,52.7,47.0,30.34,NE,44,0.0,0.0,81,0.00,,,0.00,Wunderground v.1.15,2013-05-24 16:11:00,
2013-05-24 12:12:00,52.6,46.9,30.34,NE,44,0.0,0.0,81,0.00,,,0.00,Wunderground v.1.15,2013-05-24 16:12:00,
2013-05-24 12:13:00,52.6,46.9,30.34,NE,44,0.0,0.0,81,0.00,,,0.00,Wunderground v.1.15,2013-05-24 16:13:00,
2013-05-24 12:14:00,61.5,49.6,30.38,ENE,69,2.0,2.0,65,0.00,,,0.00,Wunderground v.1.15,2013-05-24 16:14:00,
2013-05-24 12:15:00,61.6,49.3,30.37,NW,313,1.0,2.0,64,0.00,,,0.00,Wunderground v.1.15,2013-05-24 16:15:00,
2013-05-24 12:16:00,52.4,47.1,30.34,NE,44,0.0,0.0,82,0.00,,,0.00,Wunderground v.1.15,2013-05-24 16:16:00,
2013-05-24 12:17:00,61.9,48.7,30.38,WNW,296,1.0,2.0,62,0.00,,,0.00,Wunderground v.1.15,2013-05-24 16:17:00,
2013-05-24 12:18:00,61.9,48.3,30.38,NW,319,1.0,2.0,61,0.00,,,0.00,Wunderground v.1.15,2013-05-24 16:18:00,
2013-05-24 12:19:00,61.8,47.8,30.37,West,267,2.0,2.0,60,0.00,,,0.00,Wunderground v.1.15,2013-05-24 16:19:00,
2013-05-24 12:20:00,52.3,47.3,30.35,NE,44,0.0,0.0,83,0.00,,,0.00,Wunderground v.1.15,2013-05-24 16:20:00,
2013-05-24 12:21:00,52.2,47.2,30.35,NE,44,0.0,0.0,83,0.00,,,0.00,Wunderground v.1.15,2013-05-24 16:21:00,
2013-05-24 12:22:00,52.1,47.4,30.35,NE,44,0.0,0.0,84,0.00,,,0.00,Wunderground v.1.15,2013-05-24 16:22:00,
2013-05-24 12:23:00,61.8,47.3,30.37,North,355,2.0,3.0,59,0.00,,,0.00,Wunderground v.1.15,2013-05-24 16:23:00,
2013-05-24 12:24:00,51.9,47.2,30.35,NE,44,0.0,0.0,84,0.00,,,0.00,Wunderground v.1.15,2013-05-24 16:24:00,
2013-05-24 12:25:00,62.1,48.5,30.38,NE,49,2.0,3.0,61,0.00,,,0.00,Wunderground v.1.15,2013-05-24 16:25:00,
2013-05-24 12:26:00,51.8,47.1,30.35,NE,44,0.0,0.0,84,0.00,,,0.00,Wunderground v.1.15,2013-05-24 16:26:00,
2013-05-24 12:27:00,62.5,49.7,30.38,East,88,2.0,3.0,63,0.00,,,0.00,Wunderground v.1.15,2013-05-24 16:27:00,
2013-05-24 12:28:00,51.7,47.0,30.34,NE,44,0.0,0.0,84,0.00,,,0.00,Wunderground v.1.15,2013-05-24 16:28:00,
2013-05-24 12:29:00,62.9,48.8,30.38,NNW,332,2.0,3.0,60,0.00,,,0.00,Wunderground v.1.15,2013-05-24 16:29:00,
2013-05-24 12:30:00,51.6,46.9,30.34,NE,44,0.0,0.0,84,0.00,,,0.00,Wunderground v.1.15,2013-05-24 16:30:00,
2013-05-24 12:31:00,63.0,49.3,30.38,ENE,77,2.0,4.0,61,0.00,,,0.00,Wunderground v.1.15,2013-05-24 16:31:00,
2013-05-24 12:32:00,51.5,46.8,30.34,NE,44,0.0,0.0,84,0.00,,,0.00,Wunderground v.1.15,2013-05-24 16:32:00,
2013-05-24 12:33:00,63.1,49.4,30.38,NE,51,1.0,3.0,61,0.00,,,0.00,Wunderground v.1.15,2013-05-24 16:33:00,
2013-05-24 12:34:00,51.4,47.0,30.34,NE,44,0.0,0.0,85,0.00,,,0.00,Wunderground v.1.15,2013-05-24 16:34:00,
2013-05-24 12:35:00,63.3,49.2,30.37,ESE,115,1.0,3.0,60,0.00,,,0.00,Wunderground v.1.15,2013-05-24 16:35:00,
2013-05-24 12:36:00,63.3,48.7,30.37,North,5,1.0,3.0,59,0.00,,,0.00,Wunderground v.1.15,2013-05-24 16:36:00,
2013-05-24 12:37:00,63.3,49.2,30.37,WNW,302,2.0,3.0,60,0.00,,,0.00,Wunderground v.1.15,2013-05-24 16:37:00,
2013-05-24 12:38:00,51.2,47.2,30.35,NE,44,0.0,0.0,86,0.00,,,0.00,Wunderground v.1.15,2013-05-24 16:38:00,
2013-05-24 12:39:00,63.2,49.1,30.37,WNW,302,1.0,3.0,60,0.00,,,0.00,Wunderground v.1.15,2013-05-24 16:39:00,
2013-05-24 12:40:00,51.2,47.2,30.35,NE,44,0.0,0.0,86,0.00,,,0.00,Wunderground v.1.15,2013-05-24 16:40:00,
2013-05-24 12:41:00,63.0,48.0,30.38,SE,126,1.0,3.0,58,0.00,,,0.00,Wunderground v.1.15,2013-05-24 16:41:00,
2013-05-24 12:42:00,63.0,48.4,30.38,NNW,339,1.0,4.0,59,0.00,,,0.00,Wunderground v.1.15,2013-05-24 16:42:00,
2013-05-24 12:43:00,63.0,48.0,30.38,North,355,1.0,4.0,58,0.00,,,0.00,Wunderground v.1.15,2013-05-24 16:43:00,
2013-05-24 12:44:00,51.1,47.4,30.35,NE,44,0.0,0.0,87,0.00,,,0.00,Wunderground v.1.15,2013-05-24 16:44:00,
2013-05-24 12:45:00,63.1,48.5,30.37,NNE,28,2.0,4.0,59,0.00,,,0.00,Wunderground v.1.15,2013-05-24 16:45:00,
2013-05-24 12:46:00,51.1,47.7,30.35,NE,44,0.0,0.0,88,0.00,,,0.00,Wunderground v.1.15,2013-05-24 16:46:00,
2013-05-24 12:47:00,63.3,48.3,30.37,NE,41,2.0,4.0,58,0.00,,,0.00,Wunderground v.1.15,2013-05-24 16:47:00,
2013-05-24 12:48:00,63.4,48.8,30.38,NE,44,2.0,4.0,59,0.00,,,0.00,Wunderground v.1.15,2013-05-24 16:48:00,
2013-05-24 12:49:00,51.1,47.7,30.35,NE,44,0.0,0.0,88,0.00,,,0.00,Wunderground v.1.15,2013-05-24 16:49:00,
2013-05-24 12:50:00,63.4,48.8,30.37,NNE,26,2.0,4.0,59,0.00,,,0.00,Wunderground v.1.15,2013-05-24 16:50:00,
2013-05-24 12:51:00,63.4,49.7,30.38,North,5,2.0,4.0,61,0.00,,,0.00,Wunderground v.1.15,2013-05-24 16:51:00,
2013-05-24 12:52:00,63.4,49.7,30.38,NNE,21,2.0,3.0,61,0.00,,,0.00,Wunderground v.1.15,2013-05-24 16:52:00,
2013-05-24 12:53:00,51.0,47.6,30.35,NE,44,0.0,0.0,88,0.00,,,0.00,Wunderground v.1.15,2013-05-24 16:53:00,
2013-05-24 12:54:00,51.0,47.9,30.35,NE,44,0.0,0.0,89,0.00,,,0.00,Wunderground v.1.15,2013-05-24 16:54:00,
2013-05-24 12:55:00,63.5,48.9,30.37,East,94,2.0,4.0,59,0.00,,,0.00,Wunderground v.1.15,2013-05-24 16:55:00,
2013-05-24 12:56:00,50.9,47.8,30.35,NE,44,0.0,0.0,89,0.00,,,0.00,Wunderground v.1.15,2013-05-24 16:56:00,
2013-05-24 12:57:00,63.6,49.0,30.38,ESE,112,2.0,4.0,59,0.00,,,0.00,Wunderground v.1.15,2013-05-24 16:57:00,
2013-05-24 12:58:00,50.9,47.8,30.35,NE,44,0.0,0.0,89,0.00,,,0.00,Wunderground v.1.15,2013-05-24 16:58:00,
2013-05-24 12:59:00,50.9,47.8,30.35,NE,44,0.0,0.0,89,0.00,,,0.00,Wunderground v.1.15,2013-05-24 16:59:00,
2013-05-24 13:00:00,50.8,47.7,30.35,NE,44,0.0,0.0,89,0.00,,,0.00,Wunderground v.1.15,2013-05-24 17:00:00,
2013-05-24 13:01:00,63.3,48.3,30.37,NNW,344,3.0,6.0,58,0.00,,,0.00,Wunderground v.1.15,2013-05-24 17:01:00,
2013-05-24 13:02:00,63.2,48.6,30.38,NNW,347,3.0,3.0,59,0.00,,,0.00,Wunderground v.1.15,2013-05-24 17:02:00,
2013-05-24 13:03:00,63.2,48.6,30.38,North,351,3.0,3.0,59,0.00,,,0.00,Wunderground v.1.15,2013-05-24 17:03:00,
2013-05-24 13:04:00,50.8,47.7,30.35,NE,44,0.0,0.0,89,0.00,,,0.00,Wunderground v.1.15,2013-05-24 17:04:00,
2013-05-24 13:05:00,63.0,48.9,30.37,North,5,2.0,4.0,60,0.00,,,0.00,Wunderground v.1.15,2013-05-24 17:05:00,
2013-05-24 13:06:00,63.1,48.5,30.37,NNE,19,2.0,4.0,59,0.00,,,0.00,Wunderground v.1.15,2013-05-24 17:06:00,
2013-05-24 13:07:00,50.6,47.5,30.35,NE,44,0.0,0.0,89,0.00,,,0.00,Wunderground v.1.15,2013-05-24 17:07:00,
2013-05-24 13:08:00,63.2,48.6,30.37,ENE,72,2.0,4.0,59,0.00,,,0.00,Wunderground v.1.15,2013-05-24 17:08:00,
2013-05-24 13:09:00,63.2,48.2,30.37,ESE,110,2.0,4.0,58,0.00,,,0.00,Wunderground v.1.15,2013-05-24 17:09:00,
2013-05-24 13:10:00,50.6,47.5,30.35,NE,44,0.0,0.0,89,0.00,,,0.00,Wunderground v.1.15,2013-05-24 17:10:00,
2013-05-24 13:11:00,63.4,47.9,30.37,ENE,60,2.0,4.0,57,0.00,,,0.00,Wunderground v.1.15,2013-05-24 17:11:00,
2013-05-24 13:12:00,50.5,47.1,30.35,NE,44,0.0,0.0,88,0.00,,,0.00,Wunderground v.1.15,2013-05-24 17:12:00,
2013-05-24 13:13:00,63.5,49.4,30.37,ENE,70,2.0,2.0,60,0.00,,,0.00,Wunderground v.1.15,2013-05-24 17:13:00,
2013-05-24 13:14:00,50.4,47.0,30.35,NE,44,0.0,0.0,88,0.00,,,0.00,Wunderground v.1.15,2013-05-24 17:14:00,
2013-05-24 13:15:00,63.6,47.6,30.37,East,90,2.0,2.0,56,0.00,,,0.00,Wunderground v.1.15,2013-05-24 17:15:00,
2013-05-24 13:16:00,63.7,47.7,30.37,ESE,112,2.0,2.0,56,0.00,,,0.00,Wunderground v.1.15,2013-05-24 17:16:00,
2013-05-24 13:17:00,50.3,46.9,30.35,NE,44,0.0,0.0,88,0.00,,,0.00,Wunderground v.1.15,2013-05-24 17:17:00,
2013-05-24 13:18:00,50.3,46.9,30.35,NE,44,0.0,0.0,88,0.00,,,0.00,Wunderground v.1.15,2013-05-24 17:18:00,
2013-05-24 13:19:00,63.9,48.4,30.37,NNW,348,2.0,3.0,57,0.00,,,0.00,Wunderground v.1.15,2013-05-24 17:19:00,
2013-05-24 13:20:00,50.3,47.2,30.35,NE,44,0.0,0.0,89,0.00,,,0.00,Wunderground v.1.15,2013-05-24 17:20:00,
2013-05-24 13:21:00,50.3,47.2,30.35,NE,44,0.0,0.0,89,0.00,,,0.00,Wunderground v.1.15,2013-05-24 17:21:00,
2013-05-24 13:22:00,63.6,47.1,30.37,NE,40,2.0,2.0,55,0.00,,,0.00,Wunderground v.1.15,2013-05-24 17:22:00,
2013-05-24 13:23:00,63.5,47.5,30.37,NNW,346,1.0,2.0,56,0.00,,,0.00,Wunderground v.1.15,2013-05-24 17:23:00,
2013-05-24 13:24:00,50.3,47.2,30.35,NE,44,0.0,0.0,89,0.00,,,0.00,Wunderground v.1.15,2013-05-24 17:24:00,
2013-05-24 13:25:00,50.3,47.2,30.35,NE,44,0.0,0.0,89,0.00,,,0.00,Wunderground v.1.15,2013-05-24 17:25:00,
2013-05-24 13:26:00,50.3,47.2,30.35,NE,44,0.0,0.0,89,0.00,,,0.00,Wunderground v.1.15,2013-05-24 17:26:00,
2013-05-24 13:27:00,63.3,48.3,30.37,NE,39,2.0,4.0,58,0.00,,,0.00,Wunderground v.1.15,2013-05-24 17:27:00,
2013-05-24 13:28:00,63.4,48.8,30.37,East,82,2.0,4.0,59,0.00,,,0.00,Wunderground v.1.15,2013-05-24 17:28:00,
2013-05-24 13:29:00,63.5,49.8,30.37,NW,310,2.0,4.0,61,0.00,,,0.00,Wunderground v.1.15,2013-05-24 17:29:00,
2013-05-24 13:30:00,50.1,47.0,30.35,NE,44,0.0,0.0,89,0.00,,,0.00,Wunderground v.1.15,2013-05-24 17:30:00,
2013-05-24 13:31:00,50.1,47.0,30.35,NE,44,0.0,0.0,89,0.00,,,0.00,Wunderground v.1.15,2013-05-24 17:31:00,
2013-05-24 13:32:00,63.8,49.2,30.37,NNE,25,1.0,3.0,59,0.00,,,0.00,Wunderground v.1.15,2013-05-24 17:32:00,
2013-05-24 13:33:00,50.0,46.9,30.35,NE,44,0.0,0.0,89,0.00,,,0.00,Wunderground v.1.15,2013-05-24 17:33:00,
2013-05-24 13:34:00,63.8,48.3,30.36,NW,318,1.0,4.0,57,0.00,,,0.00,Wunderground v.1.15,2013-05-24 17:34:00,
2013-05-24 13:35:00,63.8,48.3,30.36,NNW,335,1.0,4.0,57,0.00,,,0.00,Wunderground v.1.15,2013-05-24 17:35:00,
2013-05-24 13:36:00,50.0,46.9,30.35,NE,44,0.0,0.0,89,0.00,,,0.00,Wunderground v.1.15,2013-05-24 17:36:00,
2013-05-24 13:37:00,63.7,48.6,30.36,NE,44,1.0,4.0,58,0.00,,,0.00,Wunderground v.1.15,2013-05-24 17:37:00,
2013-05-24 13:38:00,49.9,46.8,30.35,NE,44,0.0,0.0,89,0.00,,,0.00,Wunderground v.1.15,2013-05-24 17:38:00,
2013-05-24 13:39:00,63.8,48.3,30.36,ESE,107,1.0,4.0,57,0.00,,,0.00,Wunderground v.1.15,2013-05-24 17:39:00,
2013-05-24 13:40:00,49.9,46.8,30.35,NE,44,0.0,0.0,89,0.00,,,0.00,Wunderground v.1.15,2013-05-24 17:40:00,
2013-05-24 13:41:00,63.9,49.3,30.36,ENE,75,1.0,4.0,59,0.00,,,0.00,Wunderground v.1.15,2013-05-24 17:41:00,
2013-05-24 13:42:00,64.0,48.9,30.36,ESE,107,1.0,1.0,58,0.00,,,0.00,Wunderground v.1.15,2013-05-24 17:42:00,
2013-05-24 13:43:00,64.1,49.0,30.36,NNE,14,1.0,3.0,58,0.00,,,0.00,Wunderground v.1.15,2013-05-24 17:43:00,
2013-05-24 13:44:00,49.7,46.6,30.35,NE,44,0.0,0.0,89,0.00,,,0.00,Wunderground v.1.15,2013-05-24 17:44:00,
2013-05-24 13:45:00,49.7,46.6,30.35,NE,44,0.0,0.0,89,0.00,,,0.00,Wunderground v.1.15,2013-05-24 17:45:00,
2013-05-24 13:46:00,64.7,49.1,30.36,NNE,21,1.0,5.0,57,0.00,,,0.00,Wunderground v.1.15,2013-05-24 17:46:00,
2013-05-24 13:47:00,64.8,49.7,30.36,NNW,348,1.0,5.0,58,0.00,,,0.00,Wunderground v.1.15,2013-05-24 17:47:00,
2013-05-24 13:48:00,65.0,49.9,30.36,ENE,70,1.0,5.0,58,0.00,,,0.00,Wunderground v.1.15,2013-05-24 17:48:00,
2013-05-24 13:49:00,49.7,46.6,30.35,NE,44,0.0,0.0,89,0.00,,,0.00,Wunderground v.1.15,2013-05-24 17:49:00,
2013-05-24 13:51:00,65.5,49.9,30.36,East,88,1.0,5.0,57,0.00,,,0.00,Wunderground v.1.15,2013-05-24 17:51:00,
2013-05-24 13:52:00,49.6,46.5,30.35,NE,44,0.0,0.0,89,0.00,,,0.00,Wunderground v.1.15,2013-05-24 17:52:00,
2013-05-24 13:53:00,65.6,49.0,30.36,NW,323,1.0,3.0,55,0.00,,,0.00,Wunderground v.1.15,2013-05-24 17:53:00,
2013-05-24 13:54:00,49.6,46.5,30.35,NE,44,0.0,0.0,89,0.00,,,0.00,Wunderground v.1.15,2013-05-24 17:54:00,
2013-05-24 13:55:00,65.6,49.0,30.36,East,99,1.0,3.0,55,0.00,,,0.00,Wunderground v.1.15,2013-05-24 17:55:00,
2013-05-24 13:56:00,65.6,49.5,30.36,East,101,1.0,3.0,56,0.00,,,0.00,Wunderground v.1.15,2013-05-24 17:56:00,
2013-05-24 13:58:00,49.4,46.3,30.35,NE,44,0.0,0.0,89,0.00,,,0.00,Wunderground v.1.15,2013-05-24 17:58:00,
2013-05-24 13:59:00,49.4,46.3,30.35,NE,44,0.0,0.0,89,0.00,,,0.00,Wunderground v.1.15,2013-05-24 17:59:00,
2013-05-24 14:00:00,65.5,47.9,30.36,West,281,1.0,3.0,53,0.00,,,0.00,Wunderground v.1.15,2013-05-24 18:00:00,
2013-05-24 14:03:00,64.8,47.8,30.36,NE,49,1.0,1.0,54,0.00,,,0.00,Wunderground v.1.15,2013-05-24 18:03:00,
2013-05-24 14:04:00,64.6,48.5,30.36,WNW,294,1.0,1.0,56,0.00,,,0.00,Wunderground v.1.15,2013-05-24 18:04:00,
2013-05-24 14:05:00,64.6,48.5,30.36,NNW,344,1.0,1.0,56,0.00,,,0.00,Wunderground v.1.15,2013-05-24 18:05:00,
2013-05-24 14:08:00,64.6,48.5,30.36,NE,48,1.0,1.0,56,0.00,,,0.00,Wunderground v.1.15,2013-05-24 18:08:00,
2013-05-24 14:10:00,64.7,48.6,30.36,East,97,1.0,2.0,56,0.00,,,0.00,Wunderground v.1.15,2013-05-24 18:10:00,
2013-05-24 14:11:00,64.6,47.6,30.36,East,94,1.0,2.0,54,0.00,,,0.00,Wunderground v.1.15,2013-05-24 18:11:00,
2013-05-24 14:12:00,64.6,48.1,30.36,SSE,152,1.0,1.0,55,0.00,,,0.00,Wunderground v.1.15,2013-05-24 18:12:00,
2013-05-24 14:14:00,48.5,45.4,30.36,NE,44,0.0,0.0,89,0.00,,,0.00,Wunderground v.1.15,2013-05-24 18:14:00,
2013-05-24 14:17:00,65.0,49.4,30.35,North,360,1.0,2.0,57,0.00,,,0.00,Wunderground v.1.15,2013-05-24 18:17:00,
2013-05-24 14:18:00,65.1,48.0,30.35,NW,306,1.0,4.0,54,0.00,,,0.00,Wunderground v.1.15,2013-05-24 18:18:00,
2013-05-24 14:19:00,65.0,49.4,30.35,NE,51,1.0,4.0,57,0.00,,,0.00,Wunderground v.1.15,2013-05-24 18:19:00,
2013-05-24 14:20:00,48.3,45.5,30.36,NE,44,0.0,0.0,90,0.00,,,0.00,Wunderground v.1.15,2013-05-24 18:20:00,
2013-05-24 14:21:00,65.2,48.6,30.35,NE,40,1.0,4.0,55,0.00,,,0.00,Wunderground v.1.15,2013-05-24 18:21:00,
2013-05-24 14:24:00,65.3,48.7,30.36,NNW,333,1.0,3.0,55,0.00,,,0.00,Wunderground v.1.15,2013-05-24 18:24:00,
2013-05-24 14:26:00,65.3,49.7,30.36,NW,325,1.0,3.0,57,0.00,,,0.00,Wunderground v.1.15,2013-05-24 18:26:00,
2013-05-24 14:28:00,65.4,50.7,30.36,NW,307,1.0,3.0,59,0.00,,,0.00,Wunderground v.1.15,2013-05-24 18:28:00,
2013-05-24 14:29:00,65.6,49.5,30.36,NNE,13,1.0,3.0,56,0.00,,,0.00,Wunderground v.1.15,2013-05-24 18:29:00,
2013-05-24 14:31:00,65.7,49.1,30.36,SE,135,1.0,3.0,55,0.00,,,0.00,Wunderground v.1.15,2013-05-24 18:31:00,
2013-05-24 14:33:00,65.8,49.2,30.36,NE,55,1.0,2.0,55,0.00,,,0.00,Wunderground v.1.15,2013-05-24 18:33:00,
2013-05-24 14:36:00,66.1,49.0,30.36,NNW,344,2.0,3.0,54,0.00,,,0.00,Wunderground v.1.15,2013-05-24 18:36:00,
2013-05-24 14:38:00,66.2,48.6,30.36,ENE,59,2.0,3.0,53,0.00,,,0.00,Wunderground v.1.15,2013-05-24 18:38:00,
2013-05-24 14:39:00,66.2,48.6,30.36,NNE,26,2.0,3.0,53,0.00,,,0.00,Wunderground v.1.15,2013-05-24 18:39:00,
2013-05-24 14:40:00,66.2,49.1,30.36,NNE,26,2.0,3.0,54,0.00,,,0.00,Wunderground v.1.15,2013-05-24 18:40:00,
2013-05-24 14:41:00,66.3,48.7,30.36,NNE,26,1.0,3.0,53,0.00,,,0.00,Wunderground v.1.15,2013-05-24 18:41:00,
2013-05-24 14:45:00,66.9,50.7,30.36,ESE,110,1.0,1.0,56,0.00,,,0.00,Wunderground v.1.15,2013-05-24 18:45:00,
2013-05-24 14:46:00,67.0,50.3,30.36,ESE,110,1.0,1.0,55,0.00,,,0.00,Wunderground v.1.15,2013-05-24 18:46:00,
2013-05-24 14:48:00,67.4,50.2,30.36,ESE,109,1.0,3.0,54,0.00,,,0.00,Wunderground v.1.15,2013-05-24 18:48:00,
2013-05-24 14:49:00,67.5,51.2,30.36,North,360,1.0,3.0,56,0.00,,,0.00,Wunderground v.1.15,2013-05-24 18:49:00,
2013-05-24 14:50:00,67.6,50.4,30.36,NE,38,1.0,3.0,54,0.00,,,0.00,Wunderground v.1.15,2013-05-24 18:50:00,
2013-05-24 14:51:00,67.7,50.5,30.36,NE,38,1.0,3.0,54,0.00,,,0.00,Wunderground v.1.15,2013-05-24 18:51:00,
2013-05-24 14:54:00,67.6,49.3,30.36,NE,43,1.0,1.0,52,0.00,,,0.00,Wunderground v.1.15,2013-05-24 18:54:00,
2013-05-24 14:55:00,67.5,48.2,30.36,NE,43,1.0,1.0,50,0.00,,,0.00,Wunderground v.1.15,2013-05-24 18:55:00,
2013-05-24 14:56:00,67.5,48.7,30.36,NE,43,1.0,1.0,51,0.00,,,0.00,Wunderground v.1.15,2013-05-24 18:56:00,
2013-05-24 15:00:00,66.8,49.6,30.36,SSW,208,1.0,4.0,54,0.00,,,0.00,Wunderground v.1.15,2013-05-24 19:00:00,
2013-05-24 15:01:00,66.8,49.6,30.36,SSW,208,1.0,4.0,54,0.00,,,0.00,Wunderground v.1.15,2013-05-24 19:01:00,
2013-05-24 15:03:00,66.6,49.4,30.36,NNE,32,1.0,1.0,54,0.00,,,0.00,Wunderground v.1.15,2013-05-24 19:03:00,
2013-05-24 15:04:00,66.7,48.5,30.36,East,97,1.0,2.0,52,0.00,,,0.00,Wunderground v.1.15,2013-05-24 19:04:00,
2013-05-24 15:05:00,66.8,49.6,30.36,ENE,76,1.0,2.0,54,0.00,,,0.00,Wunderground v.1.15,2013-05-24 19:05:00,
2013-05-24 15:06:00,66.9,48.7,30.36,NNE,18,1.0,3.0,52,0.00,,,0.00,Wunderground v.1.15,2013-05-24 19:06:00,
2013-05-24 15:11:00,67.5,49.3,30.35,NNW,335,1.0,3.0,52,0.00,,,0.00,Wunderground v.1.15,2013-05-24 19:11:00,
2013-05-24 15:12:00,67.6,49.9,30.35,NE,45,1.0,1.0,53,0.00,,,0.00,Wunderground v.1.15,2013-05-24 19:12:00,
2013-05-24 15:13:00,67.6,49.9,30.35,NW,319,1.0,3.0,53,0.00,,,0.00,Wunderground v.1.15,2013-05-24 19:13:00,
2013-05-24 15:15:00,67.6,48.3,30.36,WSW,252,1.0,3.0,50,0.00,,,0.00,Wunderground v.1.15,2013-05-24 19:15:00,
2013-05-24 15:16:00,67.4,47.6,30.36,NNW,345,1.0,3.0,49,0.00,,,0.00,Wunderground v.1.15,2013-05-24 19:16:00,
2013-05-24 15:18:00,67.2,49.0,30.36,North,5,1.0,3.0,52,0.00,,,0.00,Wunderground v.1.15,2013-05-24 19:18:00,
2013-05-24 15:19:00,67.2,49.0,30.36,SE,142,1.0,3.0,52,0.00,,,0.00,Wunderground v.1.15,2013-05-24 19:19:00,
2013-05-24 15:22:00,67.3,48.0,30.36,WNW,291,1.0,1.0,50,0.00,,,0.00,Wunderground v.1.15,2013-05-24 19:22:00,
2013-05-24 15:23:00,67.3,48.0,30.35,North,11,1.0,2.0,50,0.00,,,0.00,Wunderground v.1.15,2013-05-24 19:23:00,
2013-05-24 15:24:00,67.3,48.5,30.35,NW,316,1.0,4.0,51,0.00,,,0.00,Wunderground v.1.15,2013-05-24 19:24:00,
2013-05-24 15:25:00,67.2,48.5,30.35,NW,311,1.0,4.0,51,0.00,,,0.00,Wunderground v.1.15,2013-05-24 19:25:00,
2013-05-24 15:26:00,67.2,49.0,30.35,East,94,1.0,4.0,52,0.00,,,0.00,Wunderground v.1.15,2013-05-24 19:26:00,
2013-05-24 15:28:00,67.3,49.6,30.36,ESE,117,1.0,4.0,53,0.00,,,0.00,Wunderground v.1.15,2013-05-24 19:28:00,
2013-05-24 15:31:00,67.5,50.3,30.36,ENE,71,1.0,4.0,54,0.00,,,0.00,Wunderground v.1.15,2013-05-24 19:31:00,
2013-05-24 15:33:00,67.6,49.3,30.36,NE,44,1.0,3.0,52,0.00,,,0.00,Wunderground v.1.15,2013-05-24 19:33:00,
2013-05-24 15:36:00,68.1,49.3,30.36,ENE,61,1.0,3.0,51,0.00,,,0.00,Wunderground v.1.15,2013-05-24 19:36:00,
2013-05-24 15:37:00,68.2,48.8,30.36,NNW,334,1.0,3.0,50,0.00,,,0.00,Wunderground v.1.15,2013-05-24 19:37:00,
2013-05-24 15:38:00,68.3,50.0,30.36,WNW,302,1.0,3.0,52,0.00,,,0.00,Wunderground v.1.15,2013-05-24 19:38:00,
2013-05-24 15:41:00,68.3,49.5,30.36,NE,44,1.0,3.0,51,0.00,,,0.00,Wunderground v.1.15,2013-05-24 19:41:00,
2013-05-24 15:43:00,68.4,47.9,30.36,ENE,57,1.0,1.0,48,0.00,,,0.00,Wunderground v.1.15,2013-05-24 19:43:00,
2013-05-24 15:44:00,68.4,48.5,30.36,ENE,57,1.0,1.0,49,0.00,,,0.00,Wunderground v.1.15,2013-05-24 19:44:00,
2013-05-24 15:45:00,68.4,49.0,30.36,ENE,68,1.0,1.0,50,0.00,,,0.00,Wunderground v.1.15,2013-05-24 19:45:00,
2013-05-24 15:47:00,68.5,50.2,30.36,NE,37,1.0,3.0,52,0.00,,,0.00,Wunderground v.1.15,2013-05-24 19:47:00,
2013-05-24 15:49:00,68.3,47.3,30.36,NE,41,1.0,3.0,47,0.00,,,0.00,Wunderground v.1.15,2013-05-24 19:49:00,
2013-05-24 15:51:00,68.1,47.7,30.35,ENE,64,2.0,4.0,48,0.00,,,0.00,Wunderground v.1.15,2013-05-24 19:51:00,
2013-05-24 15:52:00,68.0,49.2,30.35,NNW,336,2.0,7.0,51,0.00,,,0.00,Wunderground v.1.15,2013-05-24 19:52:00,
2013-05-24 15:55:00,67.9,47.5,30.35,East,91,2.0,7.0,48,0.00,,,0.00,Wunderground v.1.15,2013-05-24 19:55:00,
2013-05-24 15:56:00,67.8,48.5,30.35,WSW,248,2.0,7.0,50,0.00,,,0.00,Wunderground v.1.15,2013-05-24 19:56:00,
2013-05-24 15:57:00,67.7,48.4,30.35,WSW,247,2.0,7.0,50,0.00,,,0.00,Wunderground v.1.15,2013-05-24 19:57:00,
2013-05-24 15:59:00,67.4,48.1,30.35,West,275,2.0,7.0,50,0.00,,,0.00,Wunderground v.1.15,2013-05-24 19:59:00,
2013-05-24 16:00:00,67.3,48.0,30.35,West,275,2.0,7.0,50,0.00,,,0.00,Wunderground v.1.15,2013-05-24 20:00:00,
2013-05-24 16:02:00,67.2,48.5,30.35,SW,231,2.0,2.0,51,0.00,,,0.00,Wunderground v.1.15,2013-05-24 20:02:00,
2013-05-24 16:05:00,67.2,47.9,30.35,WNW,297,1.0,4.0,50,0.00,,,0.00,Wunderground v.1.15,2013-05-24 20:05:00,
2013-05-24 16:06:00,67.1,47.3,30.35,SSW,213,2.0,4.0,49,0.00,,,0.00,Wunderground v.1.15,2013-05-24 20:06:00,
2013-05-24 16:07:00,67.2,47.4,30.35,NW,311,1.0,4.0,49,0.00,,,0.00,Wunderground v.1.15,2013-05-24 20:07:00,
2013-05-24 16:08:00,67.2,46.8,30.35,NNW,332,2.0,4.0,48,0.00,,,0.00,Wunderground v.1.15,2013-05-24 20:08:00,
2013-05-24 16:09:00,67.2,46.8,30.35,NNE,22,2.0,4.0,48,0.00,,,0.00,Wunderground v.1.15,2013-05-24 20:09:00,
2013-05-24 16:10:00,67.3,46.9,30.35,ENE,71,2.0,4.0,48,0.00,,,0.00,Wunderground v.1.15,2013-05-24 20:10:00,
2013-05-24 16:14:00,68.0,48.7,30.35,NW,318,1.0,2.0,50,0.00,,,0.00,Wunderground v.1.15,2013-05-24 20:14:00,
2013-05-24 16:16:00,68.2,48.3,30.35,West,281,1.0,2.0,49,0.00,,,0.00,Wunderground v.1.15,2013-05-24 20:16:00,
2013-05-24 16:18:00,68.3,48.4,30.35,East,92,1.0,2.0,49,0.00,,,0.00,Wunderground v.1.15,2013-05-24 20:18:00,
2013-05-24 16:19:00,68.5,50.2,30.35,NNW,338,1.0,2.0,52,0.00,,,0.00,Wunderground v.1.15,2013-05-24 20:19:00,
2013-05-24 16:21:00,68.6,48.1,30.35,North,5,1.0,2.0,48,0.00,,,0.00,Wunderground v.1.15,2013-05-24 20:21:00,
2013-05-24 16:25:00,69.1,48.6,30.35,NE,44,1.0,2.0,48,0.00,,,0.00,Wunderground v.1.15,2013-05-24 20:25:00,
2013-05-24 16:26:00,69.2,48.1,30.35,ENE,59,1.0,2.0,47,0.00,,,0.00,Wunderground v.1.15,2013-05-24 20:26:00,
2013-05-24 16:27:00,69.2,48.7,30.35,ENE,59,1.0,2.0,48,0.00,,,0.00,Wunderground v.1.15,2013-05-24 20:27:00,
2013-05-24 16:30:00,69.2,48.1,30.35,NNE,28,1.0,3.0,47,0.00,,,0.00,Wunderground v.1.15,2013-05-24 20:30:00,
2013-05-24 16:33:00,69.3,49.3,30.35,NNE,28,1.0,1.0,49,0.00,,,0.00,Wunderground v.1.15,2013-05-24 20:33:00,
2013-05-24 16:36:00,69.5,49.5,30.35,East,101,1.0,1.0,49,0.00,,,0.00,Wunderground v.1.15,2013-05-24 20:36:00,
2013-05-24 16:37:00,69.6,50.1,30.35,East,101,0.0,1.0,50,0.00,,,0.00,Wunderground v.1.15,2013-05-24 20:37:00,
2013-05-24 16:40:00,69.8,48.7,30.35,North,351,0.0,2.0,47,0.00,,,0.00,Wunderground v.1.15,2013-05-24 20:40:00,
2013-05-24 16:41:00,69.8,49.2,30.35,SW,234,0.0,2.0,48,0.00,,,0.00,Wunderground v.1.15,2013-05-24 20:41:00,
2013-05-24 16:43:00,69.6,48.5,30.35,NNE,26,0.0,3.0,47,0.00,,,0.00,Wunderground v.1.15,2013-05-24 20:43:00,
2013-05-24 16:45:00,69.6,49.0,30.34,NE,52,0.0,3.0,48,0.00,,,0.00,Wunderground v.1.15,2013-05-24 20:45:00,
2013-05-24 16:46:00,69.6,50.7,30.34,East,101,0.0,3.0,51,0.00,,,0.00,Wunderground v.1.15,2013-05-24 20:46:00,
2013-05-24 16:48:00,69.5,48.9,30.34,West,266,1.0,3.0,48,0.00,,,0.00,Wunderground v.1.15,2013-05-24 20:48:00,
2013-05-24 16:49:00,69.5,48.4,30.34,SW,227,1.0,3.0,47,0.00,,,0.00,Wunderground v.1.15,2013-05-24 20:49:00,
2013-05-24 16:53:00,69.1,48.0,30.34,SW,224,1.0,1.0,47,0.00,,,0.00,Wunderground v.1.15,2013-05-24 20:53:00,
2013-05-24 16:55:00,69.0,47.4,30.34,SW,231,1.0,1.0,46,0.00,,,0.00,Wunderground v.1.15,2013-05-24 20:55:00,
2013-05-24 16:56:00,69.0,47.4,30.34,SW,230,1.0,1.0,46,0.00,,,0.00,Wunderground v.1.15,2013-05-24 20:56:00,
2013-05-24 17:00:00,69.3,49.3,30.34,SW,230,1.0,1.0,49,0.00,,,0.00,Wunderground v.1.15,2013-05-24 21:00:00,
2013-05-24 17:01:00,69.2,48.7,30.34,SSW,213,1.0,1.0,48,0.00,,,0.00,Wunderground v.1.15,2013-05-24 21:01:00,
2013-05-24 17:02:00,69.2,48.7,30.34,SW,217,1.0,2.0,48,0.00,,,0.00,Wunderground v.1.15,2013-05-24 21:02:00,
2013-05-24 17:05:00,69.0,47.9,30.34,NE,36,1.0,2.0,47,0.00,,,0.00,Wunderground v.1.15,2013-05-24 21:05:00,
2013-05-24 17:06:00,69.0,47.4,30.34,NW,315,1.0,2.0,46,0.00,,,0.00,Wunderground v.1.15,2013-05-24 21:06:00,
2013-05-24 17:07:00,68.9,48.4,30.34,NW,315,1.0,2.0,48,0.00,,,0.00,Wunderground v.1.15,2013-05-24 21:07:00,
2013-05-24 17:09:00,68.7,46.5,30.34,North,355,1.0,2.0,45,0.00,,,0.00,Wunderground v.1.15,2013-05-24 21:09:00,
2013-05-24 17:10:00,68.6,48.1,30.34,North,355,1.0,2.0,48,0.00,,,0.00,Wunderground v.1.15,2013-05-24 21:10:00,
2013-05-24 17:12:00,68.5,47.5,30.34,WSW,254,1.0,1.0,47,0.00,,,0.00,Wunderground v.1.15,2013-05-24 21:12:00,
2013-05-24 17:16:00,68.3,48.4,30.34,ENE,70,0.0,2.0,49,0.00,,,0.00,Wunderground v.1.15,2013-05-24 21:16:00,
2013-05-24 17:17:00,68.3,47.8,30.34,NE,39,1.0,2.0,48,0.00,,,0.00,Wunderground v.1.15,2013-05-24 21:17:00,
2013-05-24 17:18:00,68.2,47.8,30.34,NE,39,1.0,2.0,48,0.00,,,0.00,Wunderground v.1.15,2013-05-24 21:18:00,
2013-05-24 17:19:00,68.2,48.8,30.34,NE,39,1.0,2.0,50,0.00,,,0.00,Wunderground v.1.15,2013-05-24 21:19:00,
2013-05-24 17:23:00,68.1,48.2,30.34,NNE,18,1.0,2.0,49,0.00,,,0.00,Wunderground v.1.15,2013-05-24 21:23:00,
2013-05-24 17:24:00,68.1,47.7,30.34,NNE,18,1.0,2.0,48,0.00,,,0.00,Wunderground v.1.15,2013-05-24 21:24:00,
2013-05-24 17:27:00,68.0,47.6,30.34,ENE,59,1.0,3.0,48,0.00,,,0.00,Wunderground v.1.15,2013-05-24 21:27:00,
2013-05-24 17:32:00,67.9,49.1,30.34,SSE,157,1.0,1.0,51,0.00,,,0.00,Wunderground v.1.15,2013-05-24 21:32:00,
2013-05-24 17:33:00,67.9,48.6,30.34,SSE,157,1.0,1.0,50,0.00,,,0.00,Wunderground v.1.15,2013-05-24 21:33:00,
2013-05-24 17:34:00,67.8,48.5,30.34,SSE,157,1.0,1.0,50,0.00,,,0.00,Wunderground v.1.15,2013-05-24 21:34:00,
2013-05-24 17:38:00,67.7,48.9,30.34,West,261,0.0,1.0,51,0.00,,,0.00,Wunderground v.1.15,2013-05-24 21:38:00,
2013-05-24 17:40:00,67.6,47.2,30.34,West,267,0.0,2.0,48,0.00,,,0.00,Wunderground v.1.15,2013-05-24 21:40:00,
2013-05-24 17:41:00,67.4,47.0,30.34,West,267,0.0,2.0,48,0.00,,,0.00,Wunderground v.1.15,2013-05-24 21:41:00,
2013-05-24 17:44:00,67.3,48.0,30.33,NNE,13,0.0,3.0,50,0.00,,,0.00,Wunderground v.1.15,2013-05-24 21:44:00,
2013-05-24 17:45:00,67.3,46.9,30.33,NNE,12,0.0,3.0,48,0.00,,,0.00,Wunderground v.1.15,2013-05-24 21:45:00,
2013-05-24 17:46:00,67.3,48.0,30.33,NNE,12,1.0,3.0,50,0.00,,,0.00,Wunderground v.1.15,2013-05-24 21:46:00,
2013-05-24 17:47:00,67.3,47.5,30.33,NNE,12,1.0,3.0,49,0.00,,,0.00,Wunderground v.1.15,2013-05-24 21:47:00,
2013-05-24 17:51:00,67.4,47.6,30.33,NNE,30,0.0,3.0,49,0.00,,,0.00,Wunderground v.1.15,2013-05-24 21:51:00,
2013-05-24 17:52:00,67.4,47.6,30.33,North,360,0.0,1.0,49,0.00,,,0.00,Wunderground v.1.15,2013-05-24 21:52:00,
2013-05-24 17:57:00,67.4,47.6,30.33,NNE,19,0.0,1.0,49,0.00,,,0.00,Wunderground v.1.15,2013-05-24 21:57:00,
2013-05-24 17:58:00,67.3,48.0,30.33,NNW,340,0.0,2.0,50,0.00,,,0.00,Wunderground v.1.15,2013-05-24 21:58:00,
2013-05-24 17:59:00,67.4,48.1,30.33,North,5,0.0,2.0,50,0.00,,,0.00,Wunderground v.1.15,2013-05-24 21:59:00,
2013-05-24 18:02:00,67.3,46.9,30.33,NW,311,1.0,2.0,48,0.00,,,0.00,Wunderground v.1.15,2013-05-24 22:02:00,
2013-05-24 18:05:00,67.2,47.9,30.33,ESE,103,1.0,2.0,50,0.00,,,0.00,Wunderground v.1.15,2013-05-24 22:05:00,
2013-05-24 18:07:00,67.2,47.9,30.32,ESE,118,1.0,2.0,50,0.00,,,0.00,Wunderground v.1.15,2013-05-24 22:07:00,
2013-05-24 18:10:00,67.3,48.0,30.32,ESE,118,1.0,2.0,50,0.00,,,0.00,Wunderground v.1.15,2013-05-24 22:10:00,
2013-05-24 18:11:00,67.3,46.9,30.32,ENE,70,1.0,2.0,48,0.00,,,0.00,Wunderground v.1.15,2013-05-24 22:11:00,
2013-05-24 18:14:00,67.4,46.5,30.32,ENE,70,0.0,1.0,47,0.00,,,0.00,Wunderground v.1.15,2013-05-24 22:14:00,
2013-05-24 18:16:00,67.4,45.9,30.32,NE,51,0.0,1.0,46,0.00,,,0.00,Wunderground v.1.15,2013-05-24 22:16:00,
2013-05-24 18:18:00,67.3,47.5,30.32,NE,51,0.0,1.0,49,0.00,,,0.00,Wunderground v.1.15,2013-05-24 22:18:00,
2013-05-24 18:19:00,67.3,46.9,30.32,NE,51,0.0,1.0,48,0.00,,,0.00,Wunderground v.1.15,2013-05-24 22:19:00,
2013-05-24 18:20:00,67.4,47.6,30.32,SE,128,0.0,2.0,49,0.00,,,0.00,Wunderground v.1.15,2013-05-24 22:20:00,
2013-05-24 18:23:00,67.4,46.5,30.32,SE,127,1.0,1.0,47,0.00,,,0.00,Wunderground v.1.15,2013-05-24 22:23:00,
2013-05-24 18:24:00,67.4,46.5,30.32,SE,127,1.0,1.0,47,0.00,,,0.00,Wunderground v.1.15,2013-05-24 22:24:00,
2013-05-24 18:27:00,67.4,47.0,30.32,NE,44,0.0,2.0,48,0.00,,,0.00,Wunderground v.1.15,2013-05-24 22:27:00,
2013-05-24 18:28:00,67.5,47.7,30.32,NNE,32,0.0,2.0,49,0.00,,,0.00,Wunderground v.1.15,2013-05-24 22:28:00,
2013-05-24 18:29:00,67.5,46.6,30.32,NNE,32,0.0,2.0,47,0.00,,,0.00,Wunderground v.1.15,2013-05-24 22:29:00,
2013-05-24 18:30:00,67.6,47.8,30.32,NNE,32,0.0,2.0,49,0.00,,,0.00,Wunderground v.1.15,2013-05-24 22:30:00,
2013-05-24 18:32:00,67.6,47.2,30.32,NNE,32,0.0,0.0,48,0.00,,,0.00,Wunderground v.1.15,2013-05-24 22:32:00,
2013-05-24 18:36:00,67.3,47.5,30.32,South,187,1.0,1.0,49,0.00,,,0.00,Wunderground v.1.15,2013-05-24 22:36:00,
2013-05-24 18:37:00,67.2,46.3,30.32,South,187,1.0,1.0,47,0.00,,,0.00,Wunderground v.1.15,2013-05-24 22:37:00,
2013-05-24 18:38:00,67.2,46.3,30.32,South,187,1.0,1.0,47,0.00,,,0.00,Wunderground v.1.15,2013-05-24 22:38:00,
2013-05-24 18:39:00,67.2,46.8,30.32,South,187,1.0,1.0,48,0.00,,,0.00,Wunderground v.1.15,2013-05-24 22:39:00,
2013-05-24 18:42:00,67.4,48.6,30.32,NNE,19,0.0,0.0,51,0.00,,,0.00,Wunderground v.1.15,2013-05-24 22:42:00,
2013-05-24 18:43:00,67.4,47.0,30.32,NNE,19,0.0,1.0,48,0.00,,,0.00,Wunderground v.1.15,2013-05-24 22:43:00,
2013-05-24 18:44:00,67.4,47.0,30.32,ENE,69,0.0,1.0,48,0.00,,,0.00,Wunderground v.1.15,2013-05-24 22:44:00,
2013-05-24 18:48:00,67.8,50.0,30.32,ENE,68,0.0,1.0,53,0.00,,,0.00,Wunderground v.1.15,2013-05-24 22:48:00,
2013-05-24 18:49:00,67.9,49.1,30.31,ENE,69,0.0,1.0,51,0.00,,,0.00,Wunderground v.1.15,2013-05-24 22:49:00,
2013-05-24 18:50:00,68.0,48.7,30.31,ENE,68,0.0,1.0,50,0.00,,,0.00,Wunderground v.1.15,2013-05-24 22:50:00,
2013-05-24 18:51:00,68.1,48.2,30.31,ENE,68,0.0,1.0,49,0.00,,,0.00,Wunderground v.1.15,2013-05-24 22:51:00,
2013-05-24 18:54:00,68.2,48.3,30.31,ENE,69,0.0,1.0,49,0.00,,,0.00,Wunderground v.1.15,2013-05-24 22:54:00,
2013-05-24 18:55:00,68.1,47.7,30.31,ENE,68,0.0,1.0,48,0.00,,,0.00,Wunderground v.1.15,2013-05-24 22:55:00,
2013-05-24 18:59:00,67.8,47.4,30.31,NE,40,0.0,4.0,48,0.00,,,0.00,Wunderground v.1.15,2013-05-24 22:59:00,
2013-05-24 19:00:00,67.7,47.8,30.31,NE,40,0.0,4.0,49,0.00,,,0.00,Wunderground v.1.15,2013-05-24 23:00:00,
2013-05-24 19:04:00,67.4,47.6,30.31,North,355,0.0,0.0,49,0.00,,,0.00,Wunderground v.1.15,2013-05-24 23:04:00,
2013-05-24 19:05:00,67.2,47.9,30.31,North,355,0.0,0.0,50,0.00,,,0.00,Wunderground v.1.15,2013-05-24 23:05:00,
2013-05-24 19:07:00,67.1,48.4,30.31,NNE,32,0.0,2.0,51,0.00,,,0.00,Wunderground v.1.15,2013-05-24 23:07:00,
2013-05-24 19:10:00,66.7,47.5,30.31,WSW,240,0.0,2.0,50,0.00,,,0.00,Wunderground v.1.15,2013-05-24 23:10:00,
2013-05-24 19:12:00,66.5,49.3,30.31,WSW,240,0.0,0.0,54,0.00,,,0.00,Wunderground v.1.15,2013-05-24 23:12:00,
2013-05-24 19:13:00,66.4,47.7,30.31,WSW,240,0.0,1.0,51,0.00,,,0.00,Wunderground v.1.15,2013-05-24 23:13:00,
2013-05-24 19:18:00,66.2,47.5,30.31,North,350,0.0,2.0,51,0.00,,,0.00,Wunderground v.1.15,2013-05-24 23:18:00,
2013-05-24 19:19:00,66.1,47.4,30.31,North,350,0.0,2.0,51,0.00,,,0.00,Wunderground v.1.15,2013-05-24 23:19:00,
2013-05-24 19:20:00,66.1,48.0,30.31,NE,49,0.0,2.0,52,0.00,,,0.00,Wunderground v.1.15,2013-05-24 23:20:00,
2013-05-24 19:22:00,66.1,47.4,30.31,NE,49,0.0,0.0,51,0.00,,,0.00,Wunderground v.1.15,2013-05-24 23:22:00,
2013-05-24 19:25:00,66.1,48.5,30.30,NE,49,0.0,0.0,53,0.00,,,0.00,Wunderground v.1.15,2013-05-24 23:25:00,
2013-05-24 19:26:00,66.1,48.0,30.30,NE,49,0.0,0.0,52,0.00,,,0.00,Wunderground v.1.15,2013-05-24 23:26:00,
2013-05-24 19:27:00,66.1,48.0,30.30,NE,49,0.0,0.0,52,0.00,,,0.00,Wunderground v.1.15,2013-05-24 23:27:00,
2013-05-24 19:28:00,66.1,49.5,30.30,NE,49,0.0,0.0,55,0.00,,,0.00,Wunderground v.1.15,2013-05-24 23:28:00,
2013-05-24 19:33:00,65.9,49.8,30.31,NE,44,0.0,0.0,56,0.00,,,0.00,Wunderground v.1.15,2013-05-24 23:33:00,
2013-05-24 19:34:00,65.8,47.7,30.31,NE,44,0.0,0.0,52,0.00,,,0.00,Wunderground v.1.15,2013-05-24 23:34:00,
2013-05-24 19:37:00,65.8,48.7,30.30,NE,44,0.0,0.0,54,0.00,,,0.00,Wunderground v.1.15,2013-05-24 23:37:00,
2013-05-24 19:38:00,65.8,48.7,30.31,NE,44,0.0,0.0,54,0.00,,,0.00,Wunderground v.1.15,2013-05-24 23:38:00,
2013-05-24 19:42:00,65.9,48.8,30.30,NE,44,0.0,0.0,54,0.00,,,0.00,Wunderground v.1.15,2013-05-24 23:42:00,
2013-05-24 19:44:00,66.1,50.4,30.31,NE,44,0.0,0.0,57,0.00,,,0.00,Wunderground v.1.15,2013-05-24 23:44:00,
2013-05-24 19:45:00,66.1,49.9,30.31,NE,44,0.0,0.0,56,0.00,,,0.00,Wunderground v.1.15,2013-05-24 23:45:00,
2013-05-24 19:46:00,66.3,49.6,30.31,NE,43,0.0,0.0,55,0.00,,,0.00,Wunderground v.1.15,2013-05-24 23:46:00,
2013-05-24 19:48:00,66.4,48.7,30.30,NE,43,0.0,0.0,53,0.00,,,0.00,Wunderground v.1.15,2013-05-24 23:48:00,
2013-05-24 19:51:00,66.5,49.3,30.31,NE,43,0.0,0.0,54,0.00,,,0.00,Wunderground v.1.15,2013-05-24 23:51:00,
2013-05-24 19:52:00,66.6,48.9,30.30,NE,43,0.0,0.0,53,0.00,,,0.00,Wunderground v.1.15,2013-05-24 23:52:00,
2013-05-24 19:54:00,66.6,48.9,30.30,NE,43,0.0,0.0,53,0.00,,,0.00,Wunderground v.1.15,2013-05-24 23:54:00,
2013-05-24 20:00:00,66.7,49.5,30.30,NE,43,0.0,0.0,54,0.00,,,0.00,Wunderground v.1.15,2013-05-25 00:00:00,
2013-05-24 20:01:00,66.6,49.9,30.30,NE,43,0.0,0.0,55,0.00,,,0.00,Wunderground v.1.15,2013-05-25 00:01:00,
2013-05-24 20:02:00,66.5,49.3,30.30,NE,43,0.0,0.0,54,0.00,,,0.00,Wunderground v.1.15,2013-05-25 00:02:00,
2013-05-24 20:03:00,66.5,49.3,30.30,NE,43,0.0,0.0,54,0.00,,,0.00,Wunderground v.1.15,2013-05-25 00:03:00,
2013-05-24 20:05:00,66.3,49.2,30.30,NE,43,0.0,0.0,54,0.00,,,0.00,Wunderground v.1.15,2013-05-25 00:05:00,
2013-05-24 20:08:00,65.9,48.8,30.30,NE,43,0.0,0.0,54,0.00,,,0.00,Wunderground v.1.15,2013-05-25 00:08:00,
2013-05-24 20:11:00,65.5,49.9,30.30,NE,43,0.0,0.0,57,0.00,,,0.00,Wunderground v.1.15,2013-05-25 00:11:00,
2013-05-24 20:12:00,65.3,50.1,30.30,NE,43,0.0,0.0,58,0.00,,,0.00,Wunderground v.1.15,2013-05-25 00:12:00,
2013-05-24 20:13:00,65.2,50.0,30.30,NE,43,0.0,0.0,58,0.00,,,0.00,Wunderground v.1.15,2013-05-25 00:13:00,
2013-05-24 20:14:00,65.1,50.0,30.30,NE,43,0.0,0.0,58,0.00,,,0.00,Wunderground v.1.15,2013-05-25 00:14:00,
2013-05-24 20:18:00,64.8,49.7,30.30,NE,43,0.0,0.0,58,0.00,,,0.00,Wunderground v.1.15,2013-05-25 00:18:00,
2013-05-24 20:19:00,64.7,50.0,30.30,NE,43,0.0,0.0,59,0.00,,,0.00,Wunderground v.1.15,2013-05-25 00:19:00,
2013-05-24 20:21:00,64.5,48.9,30.30,NE,43,0.0,0.0,57,0.00,,,0.00,Wunderground v.1.15,2013-05-25 00:21:00,
2013-05-24 20:23:00,64.2,48.6,30.30,NE,43,0.0,0.0,57,0.00,,,0.00,Wunderground v.1.15,2013-05-25 00:23:00,
2013-05-24 20:24:00,64.2,48.6,30.30,NE,43,0.0,0.0,57,0.00,,,0.00,Wunderground v.1.15,2013-05-25 00:24:00,
2013-05-24 20:28:00,63.8,48.3,30.30,NE,43,0.0,0.0,57,0.00,,,0.00,Wunderground v.1.15,2013-05-25 00:28:00,
2013-05-24 20:29:00,63.6,48.1,30.31,NE,43,0.0,0.0,57,0.00,,,0.00,Wunderground v.1.15,2013-05-25 00:29:00,
2013-05-24 20:30:00,63.5,48.0,30.31,NE,43,0.0,0.0,57,0.00,,,0.00,Wunderground v.1.15,2013-05-25 00:30:00,
2013-05-24 20:31:00,63.3,48.3,30.31,NE,43,0.0,0.0,58,0.00,,,0.00,Wunderground v.1.15,2013-05-25 00:31:00,
2013-05-24 20:33:00,63.1,47.6,30.31,NE,43,0.0,0.0,57,0.00,,,0.00,Wunderground v.1.15,2013-05-25 00:33:00,
2013-05-24 20:34:00,63.0,48.4,30.30,NE,43,0.0,0.0,59,0.00,,,0.00,Wunderground v.1.15,2013-05-25 00:34:00,
2013-05-24 20:35:00,62.8,47.8,30.31,NE,43,0.0,0.0,58,0.00,,,0.00,Wunderground v.1.15,2013-05-25 00:35:00,
2013-05-24 20:37:00,62.6,47.6,30.31,NE,43,0.0,0.0,58,0.00,,,0.00,Wunderground v.1.15,2013-05-25 00:37:00,
2013-05-24 20:39:00,62.4,47.4,30.30,NE,43,0.0,0.0,58,0.00,,,0.00,Wunderground v.1.15,2013-05-25 00:39:00,
2013-05-24 20:40:00,62.3,47.8,30.30,NE,43,0.0,0.0,59,0.00,,,0.00,Wunderground v.1.15,2013-05-25 00:40:00,
2013-05-24 20:41:00,62.2,48.1,30.30,NE,43,0.0,0.0,60,0.00,,,0.00,Wunderground v.1.15,2013-05-25 00:41:00,
2013-05-24 20:43:00,61.9,47.9,30.30,NE,43,0.0,0.0,60,0.00,,,0.00,Wunderground v.1.15,2013-05-25 00:43:00,
2013-05-24 20:44:00,61.7,48.1,30.30,NE,43,0.0,0.0,61,0.00,,,0.00,Wunderground v.1.15,2013-05-25 00:44:00,
2013-05-24 20:47:00,61.3,47.7,30.30,NE,43,0.0,0.0,61,0.00,,,0.00,Wunderground v.1.15,2013-05-25 00:47:00,
2013-05-24 20:48:00,61.1,47.5,30.30,NE,43,0.0,0.0,61,0.00,,,0.00,Wunderground v.1.15,2013-05-25 00:48:00,
2013-05-24 20:49:00,61.0,47.0,30.30,NE,43,0.0,0.0,60,0.00,,,0.00,Wunderground v.1.15,2013-05-25 00:49:00,
2013-05-24 20:52:00,60.5,47.4,30.31,NE,43,0.0,0.0,62,0.00,,,0.00,Wunderground v.1.15,2013-05-25 00:52:00,
2013-05-24 20:53:00,60.3,47.6,30.31,NE,43,0.0,0.0,63,0.00,,,0.00,Wunderground v.1.15,2013-05-25 00:53:00,
2013-05-24 20:55:00,59.9,48.1,30.30,NE,43,0.0,0.0,65,0.00,,,0.00,Wunderground v.1.15,2013-05-25 00:55:00,
2013-05-24 20:58:00,59.5,48.1,30.30,NE,43,0.0,0.0,66,0.00,,,0.00,Wunderground v.1.15,2013-05-25 00:58:00,
2013-05-24 20:59:00,59.3,48.3,30.30,NE,43,0.0,0.0,67,0.00,,,0.00,Wunderground v.1.15,2013-05-25 00:59:00,
2013-05-24 21:01:00,59.1,48.5,30.30,NE,43,0.0,0.0,68,0.00,,,0.00,Wunderground v.1.15,2013-05-25 01:01:00,
2013-05-24 21:03:00,58.7,47.8,30.30,NE,43,0.0,0.0,67,0.00,,,0.00,Wunderground v.1.15,2013-05-25 01:03:00,
2013-05-24 21:06:00,58.4,47.1,30.30,NE,43,0.0,0.0,66,0.00,,,0.00,Wunderground v.1.15,2013-05-25 01:06:00,
2013-05-24 21:08:00,58.2,46.5,30.30,NE,43,0.0,0.0,65,0.00,,,0.00,Wunderground v.1.15,2013-05-25 01:08:00,
2013-05-24 21:09:00,58.2,46.5,30.30,NE,43,0.0,0.0,65,0.00,,,0.00,Wunderground v.1.15,2013-05-25 01:09:00,
2013-05-24 21:11:00,58.0,45.9,30.30,NE,43,0.0,0.0,64,0.00,,,0.00,Wunderground v.1.15,2013-05-25 01:11:00,
2013-05-24 21:13:00,57.9,45.8,30.30,NE,43,0.0,0.0,64,0.00,,,0.00,Wunderground v.1.15,2013-05-25 01:13:00,
2013-05-24 21:14:00,57.9,45.8,30.30,NE,43,0.0,0.0,64,0.00,,,0.00,Wunderground v.1.15,2013-05-25 01:14:00,
2013-05-24 21:15:00,57.8,45.7,30.30,NE,43,0.0,0.0,64,0.00,,,0.00,Wunderground v.1.15,2013-05-25 01:15:00,
2013-05-24 21:17:00,57.7,45.2,30.30,NE,43,0.0,0.0,63,0.00,,,0.00,Wunderground v.1.15,2013-05-25 01:17:00,
2013-05-24 21:19:00,57.5,45.0,30.30,NE,43,0.0,0.0,63,0.00,,,0.00,Wunderground v.1.15,2013-05-25 01:19:00,
2013-05-24 21:20:00,57.4,44.5,30.30,NE,43,0.0,0.0,62,0.00,,,0.00,Wunderground v.1.15,2013-05-25 01:20:00,
2013-05-24 21:21:00,57.3,44.4,30.30,NE,43,0.0,0.0,62,0.00,,,0.00,Wunderground v.1.15,2013-05-25 01:21:00,
2013-05-24 21:22:00,57.3,44.4,30.30,NE,43,0.0,0.0,62,0.00,,,0.00,Wunderground v.1.15,2013-05-25 01:22:00,
2013-05-24 21:25:00,57.1,43.8,30.30,NE,43,0.0,0.0,61,0.00,,,0.00,Wunderground v.1.15,2013-05-25 01:25:00,
2013-05-24 21:26:00,57.0,43.7,30.30,NE,43,0.0,0.0,61,0.00,,,0.00,Wunderground v.1.15,2013-05-25 01:26:00,
2013-05-24 21:28:00,56.9,43.6,30.30,NE,43,0.0,0.0,61,0.00,,,0.00,Wunderground v.1.15,2013-05-25 01:28:00,
2013-05-24 21:29:00,56.9,43.6,30.30,NE,43,0.0,0.0,61,0.00,,,0.00,Wunderground v.1.15,2013-05-25 01:29:00,
2013-05-24 21:32:00,56.8,43.5,30.30,NE,43,0.0,0.0,61,0.00,,,0.00,Wunderground v.1.15,2013-05-25 01:32:00,
2013-05-24 21:34:00,56.8,43.5,30.30,NE,43,0.0,0.0,61,0.00,,,0.00,Wunderground v.1.15,2013-05-25 01:34:00,
2013-05-24 21:35:00,56.7,42.5,30.31,NE,43,0.0,0.0,59,0.00,,,0.00,Wunderground v.1.15,2013-05-25 01:35:00,
2013-05-24 21:38:00,56.6,42.0,30.31,NE,43,0.0,0.0,58,0.00,,,0.00,Wunderground v.1.15,2013-05-25 01:38:00,
2013-05-24 21:39:00,56.5,41.4,30.31,NE,43,0.0,0.0,57,0.00,,,0.00,Wunderground v.1.15,2013-05-25 01:39:00,
2013-05-24 21:40:00,56.5,42.3,30.31,NE,43,0.0,0.0,59,0.00,,,0.00,Wunderground v.1.15,2013-05-25 01:40:00,
2013-05-24 21:43:00,56.4,42.2,30.31,NE,43,0.0,0.0,59,0.00,,,0.00,Wunderground v.1.15,2013-05-25 01:43:00,
2013-05-24 21:45:00,56.4,42.7,30.31,NE,43,0.0,0.0,60,0.00,,,0.00,Wunderground v.1.15,2013-05-25 01:45:00,
2013-05-24 21:46:00,56.4,42.7,30.31,NE,43,0.0,0.0,60,0.00,,,0.00,Wunderground v.1.15,2013-05-25 01:46:00,
2013-05-24 21:51:00,56.2,42.1,30.31,NE,43,0.0,0.0,59,0.00,,,0.00,Wunderground v.1.15,2013-05-25 01:51:00,
2013-05-24 21:52:00,56.2,42.1,30.31,NE,43,0.0,0.0,59,0.00,,,0.00,Wunderground v.1.15,2013-05-25 01:52:00,
2013-05-24 21:53:00,56.2,42.1,30.32,NE,43,0.0,0.0,59,0.00,,,0.00,Wunderground v.1.15,2013-05-25 01:53:00,
2013-05-24 21:58:00,56.1,42.0,30.32,NE,43,0.0,0.0,59,0.00,,,0.00,Wunderground v.1.15,2013-05-25 01:58:00,
2013-05-24 21:59:00,56.1,41.5,30.32,NE,43,0.0,0.0,58,0.00,,,0.00,Wunderground v.1.15,2013-05-25 01:59:00,
2013-05-24 22:02:00,56.0,41.9,30.32,NE,43,0.0,0.0,59,0.00,,,0.00,Wunderground v.1.15,2013-05-25 02:02:00,
2013-05-24 22:04:00,56.0,41.9,30.32,NE,43,0.0,0.0,59,0.00,,,0.00,Wunderground v.1.15,2013-05-25 02:04:00,
2013-05-24 22:05:00,56.0,41.9,30.32,NE,43,0.0,0.0,59,0.00,,,0.00,Wunderground v.1.15,2013-05-25 02:05:00,
2013-05-24 22:06:00,56.0,41.9,30.32,NE,43,0.0,0.0,59,0.00,,,0.00,Wunderground v.1.15,2013-05-25 02:06:00,
2013-05-24 22:09:00,56.0,41.9,30.32,NE,43,0.0,0.0,59,0.00,,,0.00,Wunderground v.1.15,2013-05-25 02:09:00,
2013-05-24 22:12:00,56.0,41.9,30.32,NE,43,0.0,0.0,59,0.00,,,0.00,Wunderground v.1.15,2013-05-25 02:12:00,
2013-05-24 22:15:00,55.9,42.2,30.32,NE,43,0.0,0.0,60,0.00,,,0.00,Wunderground v.1.15,2013-05-25 02:15:00,
2013-05-24 22:17:00,55.8,41.7,30.32,NE,43,0.0,0.0,59,0.00,,,0.00,Wunderground v.1.15,2013-05-25 02:17:00,
2013-05-24 22:19:00,55.7,41.1,30.32,NE,43,0.0,0.0,58,0.00,,,0.00,Wunderground v.1.15,2013-05-25 02:19:00,
2013-05-24 22:20:00,55.7,41.1,30.32,NE,43,0.0,0.0,58,0.00,,,0.00,Wunderground v.1.15,2013-05-25 02:20:00,
2013-05-24 22:24:00,55.6,41.0,30.33,NE,43,0.0,0.0,58,0.00,,,0.00,Wunderground v.1.15,2013-05-25 02:24:00,
2013-05-24 22:25:00,55.6,41.5,30.33,NE,43,0.0,0.0,59,0.00,,,0.00,Wunderground v.1.15,2013-05-25 02:25:00,
2013-05-24 22:26:00,55.6,41.0,30.33,NE,43,0.0,0.0,58,0.00,,,0.00,Wunderground v.1.15,2013-05-25 02:26:00,
2013-05-24 22:30:00,55.5,41.8,30.33,NE,43,0.0,0.0,60,0.00,,,0.00,Wunderground v.1.15,2013-05-25 02:30:00,
2013-05-24 22:32:00,55.5,42.3,30.33,NE,43,0.0,0.0,61,0.00,,,0.00,Wunderground v.1.15,2013-05-25 02:32:00,
2013-05-24 22:33:00,55.5,44.3,30.33,NE,43,0.0,0.0,66,0.00,,,0.00,Wunderground v.1.15,2013-05-25 02:33:00,
2013-05-24 22:36:00,55.3,42.1,30.34,NE,43,0.0,0.0,61,0.00,,,0.00,Wunderground v.1.15,2013-05-25 02:36:00,
2013-05-24 22:37:00,55.2,41.5,30.34,NE,43,0.0,0.0,60,0.00,,,0.00,Wunderground v.1.15,2013-05-25 02:37:00,
2013-05-24 22:39:00,55.1,41.9,30.34,NE,43,0.0,0.0,61,0.00,,,0.00,Wunderground v.1.15,2013-05-25 02:39:00,
2013-05-24 22:41:00,55.0,42.6,30.34,NE,43,0.0,0.0,63,0.00,,,0.00,Wunderground v.1.15,2013-05-25 02:41:00,
2013-05-24 22:42:00,55.0,43.0,30.34,NE,43,0.0,0.0,64,0.00,,,0.00,Wunderground v.1.15,2013-05-25 02:42:00,
2013-05-24 22:43:00,55.0,43.4,30.34,NE,43,0.0,0.0,65,0.00,,,0.00,Wunderground v.1.15,2013-05-25 02:43:00,
2013-05-24 22:45:00,54.9,43.7,30.34,NE,43,0.0,0.0,66,0.00,,,0.00,Wunderground v.1.15,2013-05-25 02:45:00,
2013-05-24 22:47:00,54.8,42.4,30.34,NE,43,0.0,0.0,63,0.00,,,0.00,Wunderground v.1.15,2013-05-25 02:47:00,
2013-05-24 22:50:00,54.8,42.4,30.34,NE,44,0.0,0.0,63,0.00,,,0.00,Wunderground v.1.15,2013-05-25 02:50:00,
2013-05-24 22:51:00,54.8,42.4,30.34,NE,44,0.0,0.0,63,0.00,,,0.00,Wunderground v.1.15,2013-05-25 02:51:00,
2013-05-24 22:54:00,54.7,42.8,30.34,NE,44,0.0,0.0,64,0.00,,,0.00,Wunderground v.1.15,2013-05-25 02:54:00,
2013-05-24 22:55:00,54.7,42.3,30.34,NE,44,0.0,0.0,63,0.00,,,0.00,Wunderground v.1.15,2013-05-25 02:55:00,
2013-05-24 22:57:00,54.7,42.3,30.34,NE,44,0.0,0.0,63,0.00,,,0.00,Wunderground v.1.15,2013-05-25 02:57:00,
2013-05-24 23:01:00,54.8,43.3,30.34,NE,44,0.0,0.0,65,0.00,,,0.00,Wunderground v.1.15,2013-05-25 03:01:00,
2013-05-24 23:02:00,54.8,43.7,30.34,NE,44,0.0,0.0,66,0.00,,,0.00,Wunderground v.1.15,2013-05-25 03:02:00,
2013-05-24 23:03:00,54.8,43.7,30.34,NE,44,0.0,0.0,66,0.00,,,0.00,Wunderground v.1.15,2013-05-25 03:03:00,
2013-05-24 23:06:00,54.7,43.2,30.34,NE,44,0.0,0.0,65,0.00,,,0.00,Wunderground v.1.15,2013-05-25 03:06:00,
2013-05-24 23:07:00,54.7,43.2,30.35,NE,44,0.0,0.0,65,0.00,,,0.00,Wunderground v.1.15,2013-05-25 03:07:00,
2013-05-24 23:08:00,54.7,43.6,30.35,NE,44,0.0,0.0,66,0.00,,,0.00,Wunderground v.1.15,2013-05-25 03:08:00,
2013-05-24 23:09:00,54.7,43.6,30.35,NE,44,0.0,0.0,66,0.00,,,0.00,Wunderground v.1.15,2013-05-25 03:09:00,
2013-05-24 23:12:00,54.6,43.5,30.35,NE,44,0.0,0.0,66,0.00,,,0.00,Wunderground v.1.15,2013-05-25 03:12:00,
2013-05-24 23:14:00,54.5,43.8,30.35,NE,44,0.0,0.0,67,0.00,,,0.00,Wunderground v.1.15,2013-05-25 03:14:00,
2013-05-24 23:16:00,54.5,44.5,30.35,NE,44,0.0,0.0,69,0.00,,,0.00,Wunderground v.1.15,2013-05-25 03:16:00,
2013-05-24 23:17:00,54.4,44.1,30.35,NE,44,0.0,0.0,68,0.00,,,0.00,Wunderground v.1.15,2013-05-25 03:17:00,
2013-05-24 23:19:00,54.4,44.4,30.35,NE,44,0.0,0.0,69,0.00,,,0.00,Wunderground v.1.15,2013-05-25 03:19:00,
2013-05-24 23:21:00,54.3,44.7,30.35,NE,44,0.0,0.0,70,0.00,,,0.00,Wunderground v.1.15,2013-05-25 03:21:00,
2013-05-24 23:23:00,54.3,44.7,30.35,NE,44,0.0,0.0,70,0.00,,,0.00,Wunderground v.1.15,2013-05-25 03:23:00,
2013-05-24 23:26:00,54.2,45.0,30.35,NE,44,0.0,0.0,71,0.00,,,0.00,Wunderground v.1.15,2013-05-25 03:26:00,
2013-05-24 23:27:00,54.2,45.4,30.35,NE,44,0.0,0.0,72,0.00,,,0.00,Wunderground v.1.15,2013-05-25 03:27:00,
2013-05-24 23:28:00,54.2,45.7,30.35,NE,44,0.0,0.0,73,0.00,,,0.00,Wunderground v.1.15,2013-05-25 03:28:00,
2013-05-24 23:29:00,54.2,45.7,30.35,NE,44,0.0,0.0,73,0.00,,,0.00,Wunderground v.1.15,2013-05-25 03:29:00,
2013-05-24 23:32:00,54.1,45.6,30.35,NE,44,0.0,0.0,73,0.00,,,0.00,Wunderground v.1.15,2013-05-25 03:32:00,
2013-05-24 23:33:00,54.0,45.5,30.35,NE,44,0.0,0.0,73,0.00,,,0.00,Wunderground v.1.15,2013-05-25 03:33:00,
2013-05-24 23:35:00,54.0,45.5,30.35,NE,44,0.0,0.0,73,0.00,,,0.00,Wunderground v.1.15,2013-05-25 03:35:00,
2013-05-24 23:36:00,53.9,45.8,30.34,NE,44,0.0,0.0,74,0.00,,,0.00,Wunderground v.1.15,2013-05-25 03:36:00,
2013-05-24 23:39:00,53.8,45.7,30.34,NE,44,0.0,0.0,74,0.00,,,0.00,Wunderground v.1.15,2013-05-25 03:39:00,
2013-05-24 23:40:00,53.7,46.3,30.34,NE,44,0.0,0.0,76,0.00,,,0.00,Wunderground v.1.15,2013-05-25 03:40:00,
2013-05-24 23:41:00,53.7,46.3,30.34,NE,44,0.0,0.0,76,0.00,,,0.00,Wunderground v.1.15,2013-05-25 03:41:00,
2013-05-24 23:44:00,53.6,46.6,30.34,NE,44,0.0,0.0,77,0.00,,,0.00,Wunderground v.1.15,2013-05-25 03:44:00,
2013-05-24 23:46:00,53.5,46.5,30.34,NE,44,0.0,0.0,77,0.00,,,0.00,Wunderground v.1.15,2013-05-25 03:46:00,
2013-05-24 23:48:00,53.4,46.7,30.34,NE,44,0.0,0.0,78,0.00,,,0.00,Wunderground v.1.15,2013-05-25 03:48:00,
2013-05-24 23:51:00,53.3,47.3,30.34,NE,44,0.0,0.0,80,0.00,,,0.00,Wunderground v.1.15,2013-05-25 03:51:00,
2013-05-24 23:53:00,53.2,47.2,30.35,NE,44,0.0,0.0,80,0.00,,,0.00,Wunderground v.1.15,2013-05-25 03:53:00,
2013-05-24 23:54:00,53.1,47.1,30.35,NE,44,0.0,0.0,80,0.00,,,0.00,Wunderground v.1.15,2013-05-25 03:54:00,
2013-05-24 23:57:00,52.9,46.6,30.35,NE,44,0.0,0.0,79,0.00,,,0.00,Wunderground v.1.15,2013-05-25 03:57:00,
2013-05-24 23:59:00,52.8,46.8,30.35,NE,44,0.0,0.0,80,0.00,,,0.00,Wunderground v.1.15,2013-05-25 03:59:00,